GFSMA_prec_precacc12_111.txt.gz
Total_Precipitation_Accumulation
0.02 0.04 0.05 0.06 0.08 0.11 0.07 0.03 0.01 0.00 0.01 0.07 0.18 0.19 0.04 0.15 0.12 0.18 0.17 0.11 0.10 0.03 0.01 0.00 0.01 0.02 0.01 0.02 0.01 0.01 0.00 0.01 0.01 0.00 0.00 0.01 0.01 0.00 0.00 0.00 0.00 0.00 0.00
0.03 0.02 0.05 0.06 0.06 0.14 0.10 0.03 0.00 0.04 0.03 0.07 0.20 0.15 0.06 0.15 0.16 0.15 0.15 0.17 0.10 0.06 0.01 0.01 0.02 0.02 0.02 0.02 0.01 0.01 0.01 0.01 0.01 0.01 0.01 0.01 0.00 0.00 0.01 0.00 0.00 0.00 0.00
0.00 0.01 0.03 0.04 0.07 0.12 0.09 0.09 0.14 0.06 0.05 0.12 0.21 0.16 0.09 0.12 0.12 0.16 0.15 0.17 0.08 0.04 0.00 0.01 0.02 0.03 0.02 0.02 0.01 0.01 0.01 0.01 0.01 0.01 0.01 0.01 0.00 0.00 0.00 0.00 0.00 0.00 0.00
0.00 0.01 0.02 0.06 0.13 0.13 0.07 0.12 0.09 0.06 0.10 0.19 0.19 0.13 0.10 0.05 0.06 0.13 0.15 0.15 0.07 0.00 0.00 0.01 0.01 0.03 0.02 0.02 0.01 0.01 0.01 0.00 0.01 0.01 0.01 0.00 0.01 0.00 0.00 0.00 0.00 0.00 0.00
0.00 0.01 0.03 0.07 0.13 0.16 0.12 0.08 0.03 0.02 0.09 0.20 0.23 0.19 0.11 0.05 0.04 0.11 0.15 0.14 0.07 0.01 0.00 0.00 0.02 0.02 0.02 0.02 0.01 0.01 0.01 0.01 0.01 0.01 0.01 0.01 0.01 0.00 0.00 0.00 0.00 0.00 0.00
0.00 0.02 0.02 0.07 0.08 0.08 0.11 0.10 0.07 0.04 0.06 0.15 0.25 0.25 0.15 0.08 0.06 0.15 0.18 0.16 0.09 0.00 0.00 0.00 0.01 0.02 0.02 0.01 0.02 0.01 0.01 0.01 0.01 0.01 0.00 0.01 0.01 0.01 0.00 0.00 0.00 0.00 0.00
0.01 0.03 0.02 0.01 0.04 0.03 0.02 0.04 0.09 0.06 0.11 0.16 0.30 0.36 0.20 0.14 0.07 0.13 0.19 0.16 0.09 0.01 0.00 0.00 0.00 0.01 0.01 0.01 0.01 0.01 0.01 0.01 0.01 0.01 0.00 0.00 0.01 0.01 0.01 0.00 0.00 0.00 0.00
0.01 0.03 0.02 0.00 0.04 0.09 0.08 0.05 0.05 0.03 0.09 0.17 0.15 0.21 0.20 0.35 0.12 0.07 0.13 0.13 0.05 0.00 0.00 0.00 0.00 0.00 0.00 0.00 0.00 0.00 0.00 0.01 0.01 0.00 0.00 0.00 0.00 0.00 0.00 0.00 0.00 0.00 0.00
0.01 0.01 0.00 0.03 0.13 0.18 0.28 0.22 0.12 0.05 0.05 0.17 0.12 0.05 0.05 0.13 0.08 0.03 0.05 0.08 0.06 0.00 0.00 0.00 0.00 0.00 0.00 0.00 0.00 0.00 0.00 0.00 0.00 0.01 0.01 0.00 0.00 0.00 0.00 0.00 0.00 0.00 0.00
0.00 0.00 0.00 0.04 0.11 0.16 0.22 0.35 0.35 0.29 0.18 0.20 0.16 0.05 0.02 0.01 0.03 0.07 0.06 0.07 0.08 0.03 0.00 0.00 0.00 0.00 0.00 0.00 0.00 0.00 0.00 0.00 0.00 0.00 0.01 0.01 0.00 0.00 0.00 0.00 0.00 0.00 0.00
0.00 0.00 0.00 0.01 0.08 0.16 0.17 0.23 0.44 0.41 0.39 0.26 0.18 0.09 0.03 0.02 0.02 0.03 0.08 0.10 0.09 0.05 0.01 0.00 0.00 0.00 0.00 0.00 0.00 0.00 0.00 0.00 0.00 0.00 0.00 0.00 0.00 0.00 0.00 0.00 0.00 0.00 0.00
0.00 0.00 0.01 0.02 0.08 0.15 0.27 0.30 0.33 0.40 0.36 0.40 0.30 0.22 0.12 0.04 0.02 0.01 0.02 0.05 0.07 0.05 0.02 0.00 0.00 0.00 0.00 0.00 0.00 0.00 0.00 0.00 0.00 0.00 0.00 0.00 0.00 0.00 0.01 0.00 0.00 0.00 0.00
0.00 0.00 0.00 0.01 0.06 0.16 0.28 0.44 0.45 0.38 0.52 0.48 0.43 0.29 0.17 0.13 0.07 0.04 0.03 0.03 0.05 0.03 0.01 0.00 0.00 0.00 0.00 0.00 0.00 0.00 0.00 0.00 0.00 0.00 0.00 0.00 0.00 0.00 0.00 0.00 0.00 0.00 0.00
0.00 0.00 0.00 0.00 0.04 0.14 0.23 0.35 0.49 0.43 0.41 0.63 0.59 0.55 0.37 0.18 0.11 0.06 0.02 0.02 0.02 0.02 0.02 0.01 0.00 0.00 0.00 0.00 0.00 0.00 0.00 0.00 0.00 0.00 0.00 0.00 0.00 0.00 0.00 0.00 0.00 0.00 0.00
0.02 0.01 0.00 0.00 0.01 0.05 0.12 0.20 0.39 0.45 0.43 0.43 0.61 0.70 0.54 0.31 0.17 0.10 0.04 0.02 0.03 0.04 0.02 0.01 0.00 0.00 0.00 0.00 0.00 0.00 0.00 0.00 0.00 0.00 0.00 0.00 0.00 0.00 0.00 0.00 0.00 0.00 0.00
0.02 0.01 0.00 0.00 0.00 0.02 0.04 0.09 0.19 0.32 0.47 0.44 0.44 0.45 0.43 0.33 0.23 0.15 0.10 0.07 0.06 0.05 0.02 0.01 0.00 0.00 0.02 0.02 0.03 0.01 0.00 0.00 0.00 0.00 0.00 0.00 0.00 0.00 0.00 0.00 0.00 0.00 0.00
0.04 0.03 0.00 0.00 0.00 0.01 0.02 0.03 0.06 0.14 0.19 0.39 0.40 0.51 0.47 0.31 0.25 0.20 0.17 0.12 0.08 0.06 0.03 0.01 0.00 0.01 0.02 0.02 0.03 0.03 0.02 0.02 0.01 0.02 0.02 0.02 0.01 0.01 0.01 0.01 0.00 0.00 0.00
0.07 0.05 0.01 0.00 0.00 0.01 0.01 0.03 0.05 0.09 0.14 0.15 0.27 0.37 0.51 0.51 0.38 0.28 0.26 0.17 0.12 0.09 0.06 0.03 0.01 0.00 0.00 0.01 0.02 0.02 0.01 0.01 0.01 0.04 0.04 0.04 0.04 0.03 0.01 0.00 0.00 0.00 0.00
0.06 0.06 0.04 0.01 0.02 0.01 0.04 0.04 0.03 0.04 0.04 0.13 0.17 0.22 0.33 0.44 0.51 0.39 0.26 0.19 0.13 0.11 0.07 0.04 0.02 0.01 0.01 0.00 0.00 0.00 0.00 0.00 0.00 0.02 0.01 0.00 0.00 0.01 0.01 0.01 0.00 0.00 0.01
0.04 0.03 0.04 0.03 0.03 0.01 0.02 0.04 0.04 0.04 0.02 0.02 0.08 0.17 0.18 0.26 0.34 0.38 0.32 0.17 0.13 0.10 0.05 0.05 0.05 0.04 0.02 0.00 0.01 0.01 0.01 0.00 0.01 0.01 0.02 0.03 0.05 0.04 0.04 0.08 0.13 0.15 0.18
0.08 0.06 0.07 0.05 0.03 0.01 0.04 0.05 0.05 0.06 0.05 0.04 0.05 0.10 0.13 0.15 0.23 0.28 0.32 0.24 0.16 0.12 0.10 0.07 0.04 0.03 0.01 0.02 0.04 0.05 0.07 0.07 0.12 0.15 0.23 0.27 0.31 0.32 0.36 0.36 0.26 0.19 0.15
0.24 0.16 0.07 0.03 0.02 0.04 0.12 0.07 0.05 0.03 0.06 0.12 0.14 0.10 0.13 0.24 0.20 0.22 0.26 0.25 0.24 0.23 0.20 0.13 0.11 0.09 0.05 0.07 0.05 0.06 0.07 0.07 0.07 0.07 0.10 0.14 0.15 0.16 0.16 0.11 0.11 0.08 0.08
0.38 0.30 0.17 0.11 0.06 0.04 0.08 0.07 0.10 0.05 0.10 0.12 0.14 0.19 0.22 0.14 0.16 0.11 0.17 0.17 0.17 0.16 0.12 0.10 0.08 0.04 0.04 0.08 0.12 0.16 0.21 0.25 0.23 0.19 0.17 0.20 0.23 0.29 0.28 0.23 0.19 0.07 0.03
0.66 0.36 0.22 0.11 0.09 0.11 0.10 0.09 0.13 0.07 0.12 0.10 0.09 0.11 0.11 0.10 0.15 0.14 0.06 0.13 0.17 0.17 0.15 0.12 0.13 0.20 0.22 0.23 0.22 0.21 0.18 0.16 0.18 0.23 0.25 0.31 0.27 0.28 0.23 0.17 0.17 0.08 0.03
0.63 0.50 0.30 0.20 0.11 0.08 0.17 0.16 0.12 0.06 0.10 0.12 0.13 0.15 0.18 0.15 0.26 0.20 0.13 0.19 0.25 0.28 0.37 0.31 0.25 0.25 0.24 0.20 0.17 0.16 0.14 0.14 0.16 0.14 0.14 0.16 0.16 0.12 0.09 0.05 0.04 0.06 0.02
0.93 0.82 0.67 0.55 0.44 0.21 0.29 0.29 0.28 0.22 0.25 0.25 0.24 0.25 0.40 0.36 0.49 0.45 0.40 0.42 0.45 0.46 0.39 0.33 0.29 0.24 0.19 0.15 0.13 0.08 0.07 0.08 0.11 0.13 0.12 0.14 0.14 0.12 0.09 0.03 0.00 0.00 0.00

GFSMA_prec_precacc12_114.txt.gz
Total_Precipitation_Accumulation
0.00 0.00 0.00 0.00 0.00 0.00 0.00 0.00 0.00 0.00 0.00 0.00 0.00 0.01 0.01 0.13 0.13 0.24 0.25 0.33 0.32 0.15 0.05 0.01 0.01 0.01 0.01 0.02 0.02 0.01 0.01 0.01 0.01 0.01 0.01 0.01 0.01 0.01 0.01 0.01 0.01 0.00 0.00
0.00 0.00 0.00 0.00 0.00 0.02 0.02 0.02 0.00 0.04 0.03 0.01 0.00 0.01 0.04 0.13 0.17 0.23 0.22 0.38 0.41 0.31 0.17 0.04 0.01 0.02 0.01 0.02 0.02 0.01 0.01 0.01 0.01 0.02 0.01 0.01 0.01 0.00 0.01 0.01 0.00 0.00 0.00
0.00 0.00 0.00 0.01 0.03 0.04 0.05 0.06 0.11 0.05 0.03 0.02 0.03 0.04 0.08 0.12 0.11 0.18 0.18 0.28 0.35 0.29 0.18 0.05 0.02 0.02 0.02 0.03 0.01 0.01 0.01 0.02 0.02 0.02 0.02 0.01 0.01 0.00 0.01 0.00 0.00 0.00 0.00
0.00 0.00 0.00 0.00 0.04 0.06 0.03 0.10 0.09 0.05 0.02 0.02 0.02 0.05 0.09 0.05 0.06 0.14 0.17 0.19 0.25 0.22 0.12 0.03 0.01 0.03 0.02 0.03 0.01 0.01 0.02 0.01 0.02 0.03 0.02 0.01 0.01 0.01 0.01 0.00 0.00 0.00 0.00
0.00 0.00 0.00 0.00 0.02 0.06 0.07 0.07 0.03 0.02 0.02 0.03 0.07 0.12 0.11 0.05 0.04 0.11 0.16 0.18 0.22 0.22 0.09 0.02 0.01 0.02 0.02 0.03 0.02 0.02 0.02 0.02 0.02 0.02 0.01 0.01 0.01 0.01 0.01 0.00 0.00 0.00 0.00
0.00 0.00 0.00 0.00 0.01 0.03 0.08 0.08 0.06 0.03 0.02 0.04 0.13 0.20 0.16 0.09 0.06 0.15 0.20 0.20 0.21 0.23 0.13 0.00 0.01 0.02 0.02 0.03 0.03 0.02 0.02 0.02 0.01 0.02 0.01 0.01 0.01 0.01 0.01 0.00 0.00 0.00 0.00
0.00 0.00 0.00 0.00 0.00 0.01 0.01 0.03 0.08 0.06 0.03 0.04 0.21 0.33 0.20 0.14 0.07 0.13 0.20 0.18 0.17 0.16 0.09 0.00 0.00 0.01 0.02 0.02 0.02 0.02 0.02 0.02 0.02 0.01 0.01 0.01 0.01 0.01 0.01 0.00 0.00 0.00 0.00
0.00 0.00 0.00 0.00 0.00 0.00 0.02 0.03 0.04 0.02 0.02 0.06 0.11 0.22 0.21 0.35 0.14 0.07 0.13 0.14 0.11 0.11 0.08 0.01 0.00 0.00 0.01 0.01 0.00 0.01 0.01 0.02 0.02 0.01 0.01 0.01 0.00 0.01 0.01 0.01 0.00 0.00 0.00
0.00 0.00 0.00 0.00 0.00 0.00 0.01 0.06 0.09 0.05 0.03 0.06 0.09 0.08 0.08 0.14 0.08 0.03 0.05 0.09 0.10 0.07 0.05 0.01 0.00 0.00 0.00 0.00 0.00 0.00 0.00 0.00 0.01 0.02 0.01 0.01 0.00 0.00 0.00 0.00 0.00 0.00 0.00
0.00 0.00 0.00 0.00 0.00 0.01 0.03 0.16 0.26 0.25 0.16 0.15 0.15 0.06 0.04 0.02 0.03 0.06 0.07 0.08 0.11 0.10 0.04 0.02 0.00 0.00 0.00 0.00 0.00 0.00 0.00 0.00 0.00 0.01 0.01 0.01 0.00 0.00 0.00 0.00 0.00 0.00 0.00
0.00 0.00 0.00 0.00 0.00 0.01 0.05 0.12 0.30 0.33 0.35 0.24 0.18 0.10 0.05 0.03 0.03 0.04 0.10 0.12 0.12 0.09 0.06 0.02 0.00 0.00 0.00 0.00 0.00 0.00 0.00 0.00 0.00 0.00 0.00 0.00 0.01 0.01 0.00 0.00 0.00 0.00 0.00
0.00 0.00 0.01 0.01 0.01 0.01 0.07 0.17 0.21 0.33 0.31 0.34 0.29 0.23 0.14 0.06 0.03 0.02 0.02 0.04 0.07 0.08 0.08 0.04 0.01 0.00 0.00 0.00 0.00 0.00 0.00 0.00 0.00 0.00 0.00 0.00 0.00 0.01 0.01 0.01 0.00 0.00 0.00
0.00 0.00 0.00 0.01 0.01 0.02 0.08 0.21 0.29 0.30 0.43 0.40 0.38 0.28 0.18 0.14 0.08 0.07 0.07 0.04 0.07 0.09 0.10 0.07 0.02 0.00 0.00 0.00 0.00 0.00 0.00 0.00 0.00 0.00 0.00 0.00 0.00 0.00 0.00 0.00 0.00 0.00 0.00
0.00 0.00 0.00 0.00 0.00 0.01 0.05 0.17 0.32 0.34 0.33 0.55 0.55 0.55 0.40 0.25 0.19 0.17 0.11 0.06 0.09 0.08 0.05 0.03 0.02 0.01 0.00 0.00 0.00 0.00 0.00 0.00 0.00 0.00 0.00 0.00 0.00 0.00 0.00 0.00 0.00 0.00 0.00
0.04 0.04 0.03 0.00 0.00 0.01 0.02 0.09 0.24 0.30 0.32 0.35 0.59 0.74 0.67 0.45 0.29 0.22 0.13 0.07 0.06 0.07 0.03 0.01 0.01 0.00 0.00 0.00 0.00 0.00 0.00 0.00 0.00 0.00 0.00 0.00 0.00 0.00 0.00 0.00 0.00 0.00 0.00
0.08 0.05 0.04 0.02 0.01 0.01 0.01 0.02 0.11 0.24 0.38 0.37 0.38 0.42 0.46 0.41 0.34 0.27 0.21 0.13 0.10 0.07 0.05 0.02 0.02 0.01 0.01 0.00 0.01 0.00 0.00 0.00 0.00 0.00 0.00 0.00 0.00 0.00 0.00 0.00 0.00 0.00 0.00
0.06 0.04 0.04 0.02 0.02 0.01 0.01 0.02 0.04 0.11 0.18 0.38 0.39 0.53 0.54 0.35 0.32 0.26 0.25 0.19 0.12 0.09 0.06 0.05 0.02 0.02 0.03 0.02 0.02 0.02 0.02 0.02 0.01 0.02 0.02 0.02 0.01 0.01 0.01 0.01 0.00 0.00 0.00
0.10 0.10 0.08 0.04 0.02 0.04 0.03 0.03 0.03 0.04 0.07 0.12 0.26 0.38 0.62 0.64 0.51 0.39 0.33 0.24 0.17 0.15 0.15 0.12 0.07 0.03 0.01 0.01 0.02 0.02 0.01 0.01 0.02 0.04 0.05 0.04 0.04 0.03 0.01 0.00 0.00 0.00 0.00
0.09 0.09 0.08 0.05 0.04 0.05 0.07 0.03 0.03 0.03 0.03 0.11 0.16 0.21 0.35 0.49 0.63 0.54 0.39 0.31 0.25 0.22 0.21 0.19 0.12 0.06 0.02 0.01 0.01 0.00 0.01 0.02 0.03 0.03 0.02 0.00 0.00 0.01 0.01 0.01 0.00 0.00 0.01
0.09 0.07 0.08 0.09 0.08 0.04 0.03 0.03 0.03 0.04 0.02 0.02 0.08 0.20 0.24 0.30 0.39 0.44 0.43 0.35 0.32 0.29 0.21 0.18 0.16 0.10 0.05 0.03 0.03 0.02 0.02 0.03 0.03 0.01 0.01 0.02 0.04 0.04 0.04 0.07 0.13 0.15 0.18
0.11 0.09 0.09 0.08 0.08 0.09 0.10 0.07 0.05 0.06 0.05 0.04 0.05 0.11 0.19 0.23 0.31 0.34 0.44 0.41 0.34 0.31 0.25 0.19 0.14 0.10 0.05 0.04 0.03 0.02 0.05 0.09 0.15 0.13 0.17 0.22 0.25 0.27 0.32 0.31 0.23 0.17 0.15
0.25 0.23 0.17 0.16 0.16 0.14 0.24 0.18 0.06 0.03 0.06 0.11 0.13 0.09 0.13 0.31 0.38 0.39 0.37 0.37 0.41 0.43 0.33 0.22 0.17 0.14 0.10 0.10 0.09 0.09 0.06 0.06 0.07 0.05 0.06 0.10 0.11 0.08 0.05 0.05 0.09 0.07 0.09
0.48 0.46 0.48 0.44 0.28 0.17 0.20 0.22 0.16 0.05 0.08 0.09 0.12 0.18 0.20 0.16 0.19 0.19 0.36 0.34 0.30 0.35 0.34 0.25 0.24 0.16 0.13 0.12 0.14 0.16 0.16 0.15 0.12 0.08 0.10 0.16 0.18 0.18 0.16 0.14 0.15 0.06 0.03
0.73 0.56 0.55 0.50 0.51 0.42 0.27 0.23 0.19 0.08 0.12 0.12 0.10 0.13 0.14 0.13 0.19 0.18 0.14 0.21 0.27 0.27 0.28 0.25 0.16 0.13 0.12 0.15 0.19 0.19 0.16 0.17 0.21 0.19 0.20 0.26 0.25 0.24 0.20 0.15 0.18 0.08 0.04
0.69 0.75 0.63 0.55 0.45 0.32 0.33 0.28 0.16 0.07 0.11 0.11 0.10 0.11 0.16 0.12 0.21 0.20 0.13 0.20 0.29 0.30 0.40 0.44 0.41 0.39 0.33 0.26 0.21 0.16 0.15 0.16 0.17 0.16 0.17 0.18 0.18 0.16 0.12 0.10 0.09 0.09 0.04
0.67 0.71 0.70 0.66 0.63 0.42 0.45 0.41 0.37 0.23 0.16 0.12 0.10 0.15 0.29 0.24 0.38 0.32 0.27 0.30 0.40 0.43 0.39 0.37 0.35 0.30 0.23 0.17 0.16 0.12 0.10 0.13 0.16 0.17 0.17 0.18 0.19 0.20 0.19 0.14 0.07 0.03 0.01

GFSMA_prec_precacc12_117.txt.gz
Total_Precipitation_Accumulation
0.00 0.00 0.00 0.00 0.00 0.00 0.00 0.00 0.00 0.00 0.00 0.00 0.00 0.00 0.00 0.05 0.14 0.26 0.26 0.40 0.47 0.43 0.27 0.04 0.01 0.01 0.01 0.01 0.01 0.01 0.01 0.02 0.01 0.01 0.01 0.02 0.01 0.01 0.01 0.01 0.01 0.01 0.00
0.00 0.00 0.00 0.00 0.00 0.00 0.00 0.00 0.00 0.00 0.00 0.01 0.00 0.00 0.00 0.03 0.16 0.30 0.27 0.51 0.66 0.71 0.67 0.26 0.03 0.01 0.01 0.02 0.02 0.01 0.01 0.02 0.02 0.02 0.01 0.02 0.01 0.01 0.01 0.01 0.01 0.00 0.00
0.00 0.00 0.00 0.00 0.00 0.00 0.00 0.00 0.00 0.00 0.02 0.02 0.00 0.00 0.02 0.03 0.09 0.22 0.20 0.30 0.41 0.44 0.55 0.54 0.20 0.03 0.01 0.03 0.02 0.01 0.02 0.02 0.03 0.02 0.02 0.01 0.01 0.01 0.01 0.01 0.01 0.00 0.00
0.00 0.00 0.00 0.00 0.00 0.00 0.00 0.00 0.00 0.02 0.02 0.02 0.00 0.01 0.01 0.01 0.04 0.14 0.18 0.20 0.30 0.31 0.36 0.28 0.13 0.05 0.02 0.04 0.02 0.01 0.02 0.02 0.03 0.04 0.02 0.02 0.01 0.01 0.01 0.01 0.00 0.00 0.00
0.00 0.00 0.00 0.00 0.00 0.00 0.00 0.00 0.00 0.01 0.01 0.02 0.04 0.03 0.01 0.01 0.04 0.11 0.16 0.18 0.22 0.27 0.21 0.18 0.08 0.03 0.02 0.04 0.03 0.02 0.02 0.02 0.03 0.03 0.02 0.02 0.01 0.01 0.01 0.01 0.00 0.00 0.00
0.00 0.00 0.00 0.00 0.00 0.01 0.01 0.00 0.02 0.02 0.02 0.03 0.06 0.06 0.05 0.05 0.06 0.15 0.20 0.20 0.21 0.24 0.25 0.13 0.06 0.03 0.02 0.03 0.04 0.02 0.02 0.02 0.02 0.02 0.02 0.02 0.01 0.02 0.02 0.01 0.00 0.00 0.00
0.00 0.00 0.00 0.00 0.00 0.01 0.00 0.01 0.03 0.05 0.03 0.02 0.09 0.10 0.09 0.13 0.07 0.13 0.20 0.18 0.18 0.17 0.21 0.20 0.05 0.01 0.02 0.02 0.03 0.02 0.02 0.03 0.02 0.02 0.03 0.02 0.02 0.02 0.02 0.01 0.00 0.00 0.00
0.00 0.00 0.00 0.00 0.00 0.00 0.01 0.01 0.01 0.01 0.01 0.03 0.07 0.12 0.17 0.34 0.14 0.07 0.14 0.15 0.12 0.12 0.11 0.12 0.06 0.01 0.01 0.01 0.01 0.02 0.02 0.03 0.03 0.02 0.02 0.03 0.01 0.01 0.02 0.01 0.01 0.00 0.00
0.00 0.00 0.00 0.00 0.00 0.00 0.01 0.01 0.01 0.02 0.02 0.03 0.05 0.07 0.08 0.14 0.08 0.04 0.06 0.09 0.10 0.07 0.07 0.06 0.07 0.02 0.00 0.00 0.00 0.00 0.01 0.02 0.04 0.03 0.02 0.02 0.01 0.01 0.01 0.01 0.01 0.01 0.00
0.00 0.00 0.00 0.00 0.00 0.00 0.01 0.01 0.02 0.04 0.09 0.10 0.06 0.05 0.05 0.02 0.03 0.06 0.07 0.08 0.11 0.10 0.05 0.04 0.05 0.02 0.00 0.00 0.00 0.00 0.00 0.00 0.01 0.02 0.03 0.02 0.01 0.01 0.01 0.01 0.01 0.00 0.00
0.00 0.00 0.00 0.00 0.00 0.00 0.01 0.02 0.03 0.07 0.14 0.20 0.15 0.07 0.06 0.04 0.03 0.04 0.11 0.13 0.13 0.09 0.07 0.04 0.04 0.03 0.01 0.00 0.00 0.00 0.00 0.00 0.00 0.00 0.01 0.02 0.02 0.01 0.01 0.00 0.00 0.00 0.00
0.00 0.00 0.01 0.01 0.01 0.01 0.01 0.02 0.04 0.10 0.19 0.27 0.26 0.22 0.13 0.07 0.04 0.03 0.03 0.05 0.08 0.09 0.09 0.06 0.04 0.01 0.00 0.00 0.00 0.00 0.00 0.00 0.00 0.00 0.00 0.00 0.01 0.01 0.02 0.01 0.01 0.00 0.00
0.00 0.00 0.00 0.01 0.01 0.01 0.01 0.02 0.06 0.15 0.33 0.34 0.33 0.25 0.16 0.13 0.08 0.07 0.10 0.13 0.15 0.14 0.14 0.10 0.05 0.01 0.00 0.00 0.00 0.00 0.00 0.00 0.00 0.00 0.00 0.00 0.00 0.00 0.00 0.00 0.01 0.01 0.01
0.01 0.01 0.00 0.01 0.02 0.02 0.02 0.03 0.08 0.18 0.24 0.48 0.46 0.46 0.33 0.21 0.18 0.19 0.20 0.22 0.25 0.15 0.06 0.04 0.04 0.03 0.01 0.00 0.00 0.00 0.00 0.00 0.00 0.00 0.00 0.00 0.00 0.00 0.00 0.00 0.00 0.00 0.00
0.10 0.11 0.09 0.02 0.02 0.01 0.01 0.02 0.05 0.12 0.18 0.21 0.44 0.60 0.59 0.42 0.29 0.23 0.18 0.18 0.21 0.21 0.07 0.02 0.02 0.02 0.01 0.01 0.00 0.00 0.00 0.00 0.00 0.00 0.00 0.00 0.00 0.00 0.00 0.00 0.00 0.00 0.00
0.17 0.18 0.16 0.08 0.03 0.05 0.03 0.02 0.03 0.04 0.17 0.23 0.25 0.29 0.38 0.38 0.35 0.30 0.26 0.21 0.21 0.21 0.15 0.03 0.04 0.03 0.02 0.01 0.01 0.00 0.00 0.00 0.00 0.00 0.00 0.00 0.00 0.00 0.00 0.00 0.00 0.00 0.00
0.16 0.13 0.17 0.13 0.09 0.07 0.03 0.03 0.03 0.04 0.08 0.29 0.32 0.45 0.47 0.32 0.31 0.26 0.25 0.22 0.18 0.18 0.17 0.10 0.05 0.06 0.05 0.03 0.03 0.02 0.03 0.03 0.01 0.01 0.01 0.02 0.01 0.01 0.01 0.01 0.00 0.00 0.00
0.13 0.16 0.16 0.13 0.11 0.09 0.08 0.06 0.03 0.04 0.06 0.09 0.22 0.34 0.59 0.63 0.51 0.39 0.34 0.26 0.20 0.19 0.20 0.18 0.14 0.11 0.05 0.03 0.03 0.02 0.02 0.02 0.03 0.04 0.05 0.04 0.04 0.03 0.01 0.00 0.00 0.00 0.00
0.11 0.11 0.10 0.08 0.06 0.08 0.09 0.06 0.04 0.02 0.01 0.06 0.10 0.16 0.30 0.47 0.63 0.54 0.42 0.35 0.27 0.24 0.24 0.25 0.19 0.15 0.11 0.05 0.03 0.01 0.01 0.02 0.04 0.03 0.02 0.00 0.00 0.00 0.00 0.00 0.00 0.00 0.01
0.12 0.11 0.12 0.12 0.11 0.08 0.07 0.06 0.05 0.04 0.03 0.02 0.06 0.18 0.17 0.22 0.36 0.43 0.45 0.39 0.37 0.33 0.27 0.27 0.28 0.20 0.12 0.07 0.07 0.04 0.04 0.04 0.04 0.02 0.02 0.01 0.01 0.01 0.01 0.04 0.08 0.12 0.15
0.12 0.12 0.13 0.12 0.13 0.17 0.20 0.16 0.13 0.11 0.07 0.02 0.01 0.06 0.15 0.22 0.28 0.35 0.44 0.44 0.38 0.34 0.31 0.28 0.28 0.24 0.13 0.07 0.06 0.05 0.10 0.10 0.12 0.08 0.11 0.14 0.16 0.19 0.24 0.23 0.17 0.12 0.10
0.24 0.21 0.16 0.16 0.18 0.16 0.35 0.31 0.25 0.22 0.19 0.15 0.10 0.05 0.09 0.28 0.38 0.42 0.40 0.41 0.46 0.48 0.40 0.30 0.26 0.25 0.17 0.15 0.12 0.14 0.15 0.15 0.11 0.06 0.06 0.09 0.10 0.08 0.06 0.05 0.08 0.04 0.03
0.44 0.42 0.45 0.42 0.28 0.20 0.33 0.35 0.34 0.23 0.24 0.21 0.14 0.16 0.15 0.14 0.19 0.20 0.41 0.44 0.38 0.41 0.41 0.34 0.33 0.24 0.21 0.19 0.23 0.25 0.22 0.15 0.09 0.06 0.11 0.17 0.16 0.16 0.15 0.15 0.15 0.06 0.03
0.68 0.49 0.48 0.50 0.54 0.52 0.46 0.45 0.53 0.46 0.42 0.28 0.14 0.11 0.13 0.12 0.19 0.18 0.13 0.20 0.29 0.32 0.34 0.31 0.26 0.20 0.14 0.16 0.23 0.21 0.20 0.28 0.30 0.24 0.23 0.28 0.26 0.25 0.20 0.16 0.20 0.09 0.05
0.65 0.73 0.60 0.52 0.48 0.41 0.43 0.44 0.43 0.35 0.36 0.33 0.22 0.16 0.16 0.12 0.23 0.24 0.15 0.20 0.28 0.29 0.41 0.47 0.44 0.42 0.38 0.33 0.31 0.31 0.38 0.38 0.32 0.23 0.23 0.25 0.23 0.21 0.18 0.14 0.14 0.15 0.06
0.54 0.58 0.63 0.62 0.59 0.45 0.48 0.53 0.54 0.43 0.38 0.32 0.26 0.18 0.26 0.20 0.33 0.22 0.12 0.11 0.18 0.24 0.21 0.21 0.25 0.28 0.32 0.35 0.37 0.30 0.31 0.37 0.38 0.36 0.30 0.27 0.27 0.25 0.24 0.19 0.11 0.08 0.04

GFSMA_prec_precacc12_123.txt.gz
Total_Precipitation_Accumulation
0.02 0.01 0.01 0.01 0.00 0.00 0.00 0.00 0.01 0.02 0.01 0.00 0.00 0.00 0.03 0.06 0.13 0.26 0.26 0.36 0.40 0.60 0.61 0.41 0.22 0.09 0.01 0.00 0.01 0.01 0.01 0.01 0.01 0.01 0.01 0.01 0.02 0.02 0.01 0.01 0.01 0.00 0.00
0.01 0.01 0.01 0.01 0.00 0.00 0.00 0.00 0.02 0.00 0.00 0.00 0.00 0.00 0.01 0.04 0.09 0.25 0.31 0.47 0.63 0.73 0.95 0.79 0.51 0.21 0.02 0.01 0.01 0.01 0.02 0.02 0.02 0.01 0.01 0.02 0.02 0.01 0.01 0.01 0.01 0.00 0.00
0.00 0.00 0.01 0.01 0.01 0.00 0.01 0.02 0.03 0.01 0.00 0.00 0.00 0.00 0.00 0.01 0.04 0.12 0.21 0.33 0.44 0.41 0.61 1.10 0.95 0.47 0.10 0.02 0.01 0.01 0.02 0.03 0.03 0.02 0.02 0.02 0.01 0.01 0.01 0.01 0.01 0.01 0.01
0.00 0.00 0.00 0.00 0.01 0.01 0.00 0.01 0.01 0.01 0.00 0.00 0.00 0.00 0.00 0.00 0.00 0.04 0.11 0.17 0.43 0.37 0.37 0.39 0.63 0.42 0.18 0.04 0.01 0.01 0.02 0.03 0.04 0.03 0.02 0.02 0.01 0.01 0.01 0.01 0.01 0.01 0.00
0.00 0.00 0.00 0.00 0.01 0.01 0.00 0.00 0.01 0.01 0.01 0.00 0.00 0.00 0.00 0.00 0.00 0.01 0.03 0.11 0.32 0.44 0.31 0.24 0.20 0.16 0.12 0.10 0.04 0.01 0.01 0.02 0.03 0.03 0.01 0.01 0.01 0.01 0.02 0.01 0.01 0.00 0.00
0.00 0.00 0.00 0.00 0.00 0.01 0.01 0.00 0.00 0.00 0.01 0.01 0.00 0.01 0.01 0.00 0.01 0.01 0.03 0.08 0.21 0.38 0.46 0.24 0.12 0.08 0.04 0.04 0.06 0.03 0.01 0.01 0.02 0.03 0.02 0.01 0.01 0.02 0.02 0.02 0.01 0.00 0.00
0.00 0.00 0.00 0.00 0.00 0.01 0.01 0.00 0.00 0.00 0.01 0.02 0.02 0.02 0.03 0.02 0.01 0.01 0.01 0.04 0.11 0.25 0.34 0.37 0.16 0.08 0.05 0.03 0.04 0.06 0.03 0.03 0.01 0.02 0.03 0.03 0.02 0.02 0.02 0.02 0.01 0.00 0.00
0.00 0.00 0.00 0.00 0.00 0.00 0.01 0.01 0.01 0.01 0.01 0.02 0.03 0.03 0.05 0.04 0.03 0.01 0.01 0.02 0.08 0.16 0.16 0.18 0.19 0.10 0.05 0.03 0.01 0.04 0.05 0.04 0.03 0.02 0.04 0.04 0.01 0.02 0.02 0.02 0.01 0.01 0.00
0.00 0.00 0.00 0.00 0.00 0.00 0.00 0.01 0.00 0.01 0.02 0.02 0.02 0.03 0.04 0.02 0.01 0.01 0.02 0.02 0.06 0.11 0.11 0.11 0.11 0.08 0.04 0.02 0.01 0.00 0.02 0.03 0.05 0.04 0.02 0.03 0.02 0.01 0.02 0.02 0.02 0.01 0.01
0.00 0.00 0.00 0.00 0.00 0.00 0.00 0.00 0.01 0.02 0.02 0.02 0.02 0.02 0.03 0.01 0.01 0.01 0.02 0.02 0.04 0.08 0.07 0.08 0.09 0.10 0.05 0.01 0.00 0.00 0.00 0.00 0.02 0.05 0.04 0.02 0.02 0.02 0.02 0.01 0.01 0.01 0.01
0.00 0.00 0.00 0.00 0.00 0.00 0.00 0.00 0.00 0.02 0.02 0.02 0.01 0.02 0.03 0.03 0.02 0.02 0.04 0.04 0.04 0.05 0.07 0.08 0.08 0.08 0.05 0.03 0.01 0.01 0.01 0.00 0.00 0.01 0.03 0.04 0.02 0.02 0.01 0.01 0.01 0.01 0.01
0.01 0.00 0.00 0.00 0.00 0.00 0.00 0.01 0.01 0.01 0.02 0.02 0.03 0.04 0.03 0.05 0.03 0.03 0.03 0.02 0.03 0.04 0.07 0.08 0.08 0.08 0.09 0.06 0.02 0.00 0.00 0.00 0.00 0.00 0.00 0.01 0.03 0.03 0.02 0.02 0.01 0.01 0.01
0.01 0.01 0.01 0.01 0.01 0.01 0.01 0.01 0.02 0.02 0.03 0.03 0.04 0.04 0.05 0.04 0.04 0.05 0.09 0.13 0.13 0.13 0.17 0.13 0.07 0.06 0.05 0.05 0.03 0.01 0.00 0.00 0.00 0.00 0.00 0.00 0.00 0.01 0.02 0.01 0.02 0.01 0.01
0.02 0.04 0.09 0.10 0.08 0.05 0.03 0.03 0.03 0.03 0.03 0.04 0.04 0.05 0.07 0.09 0.11 0.16 0.20 0.23 0.26 0.17 0.08 0.06 0.05 0.05 0.03 0.01 0.01 0.03 0.02 0.01 0.00 0.00 0.00 0.00 0.00 0.00 0.00 0.00 0.01 0.01 0.01
0.13 0.17 0.22 0.17 0.14 0.18 0.16 0.13 0.06 0.05 0.05 0.06 0.11 0.15 0.21 0.18 0.17 0.16 0.19 0.22 0.26 0.27 0.09 0.01 0.03 0.02 0.02 0.02 0.01 0.01 0.00 0.00 0.00 0.00 0.00 0.00 0.00 0.00 0.00 0.00 0.00 0.00 0.00
0.22 0.27 0.30 0.23 0.14 0.30 0.39 0.27 0.22 0.19 0.15 0.09 0.08 0.11 0.11 0.13 0.16 0.18 0.19 0.19 0.25 0.29 0.26 0.05 0.05 0.04 0.06 0.06 0.03 0.03 0.01 0.02 0.01 0.01 0.00 0.00 0.00 0.00 0.00 0.00 0.00 0.00 0.00
0.23 0.25 0.32 0.29 0.16 0.17 0.31 0.31 0.24 0.17 0.15 0.15 0.12 0.09 0.11 0.08 0.10 0.08 0.10 0.14 0.15 0.20 0.23 0.13 0.07 0.08 0.12 0.12 0.10 0.08 0.05 0.04 0.02 0.01 0.01 0.00 0.00 0.00 0.00 0.00 0.00 0.00 0.00
0.18 0.24 0.22 0.19 0.16 0.14 0.16 0.15 0.16 0.13 0.07 0.04 0.06 0.11 0.18 0.18 0.17 0.13 0.10 0.11 0.11 0.12 0.17 0.19 0.15 0.13 0.12 0.10 0.13 0.14 0.13 0.13 0.09 0.07 0.02 0.00 0.00 0.00 0.00 0.00 0.00 0.00 0.00
0.06 0.11 0.16 0.15 0.14 0.14 0.16 0.13 0.09 0.08 0.07 0.06 0.04 0.04 0.06 0.12 0.17 0.19 0.18 0.17 0.15 0.14 0.19 0.25 0.21 0.15 0.13 0.11 0.15 0.15 0.19 0.21 0.18 0.12 0.05 0.02 0.00 0.00 0.00 0.00 0.00 0.00 0.00
0.08 0.08 0.10 0.11 0.12 0.11 0.10 0.10 0.08 0.07 0.08 0.08 0.06 0.07 0.10 0.10 0.12 0.12 0.18 0.25 0.26 0.25 0.23 0.24 0.24 0.19 0.14 0.14 0.16 0.17 0.25 0.28 0.20 0.11 0.08 0.07 0.05 0.04 0.02 0.01 0.00 0.00 0.00
0.06 0.08 0.10 0.14 0.15 0.18 0.21 0.16 0.13 0.13 0.10 0.11 0.11 0.13 0.20 0.31 0.31 0.28 0.32 0.37 0.40 0.34 0.26 0.24 0.29 0.26 0.18 0.12 0.14 0.13 0.23 0.22 0.23 0.18 0.16 0.15 0.11 0.05 0.03 0.02 0.02 0.02 0.03
0.02 0.09 0.13 0.16 0.19 0.17 0.36 0.30 0.25 0.24 0.27 0.36 0.41 0.43 0.46 0.55 0.57 0.53 0.42 0.37 0.40 0.41 0.29 0.19 0.19 0.22 0.17 0.15 0.17 0.28 0.34 0.34 0.21 0.12 0.12 0.16 0.15 0.12 0.09 0.07 0.08 0.08 0.08
0.11 0.18 0.33 0.36 0.24 0.18 0.33 0.32 0.29 0.22 0.23 0.31 0.34 0.30 0.23 0.24 0.21 0.18 0.31 0.34 0.29 0.36 0.40 0.31 0.28 0.23 0.21 0.20 0.27 0.34 0.34 0.23 0.13 0.11 0.22 0.35 0.28 0.20 0.16 0.15 0.17 0.08 0.07
0.09 0.21 0.36 0.45 0.50 0.47 0.43 0.42 0.48 0.43 0.40 0.33 0.25 0.17 0.15 0.14 0.18 0.17 0.15 0.17 0.22 0.27 0.35 0.35 0.29 0.24 0.19 0.19 0.27 0.25 0.27 0.38 0.38 0.28 0.28 0.33 0.26 0.29 0.26 0.19 0.25 0.14 0.11
0.10 0.28 0.37 0.41 0.44 0.39 0.37 0.37 0.40 0.37 0.37 0.34 0.28 0.24 0.24 0.18 0.34 0.29 0.15 0.19 0.29 0.30 0.42 0.51 0.53 0.55 0.49 0.42 0.37 0.36 0.50 0.53 0.42 0.29 0.23 0.24 0.25 0.27 0.30 0.29 0.28 0.28 0.15
0.04 0.12 0.22 0.28 0.35 0.34 0.34 0.38 0.43 0.40 0.40 0.39 0.35 0.31 0.42 0.36 0.47 0.39 0.32 0.32 0.34 0.36 0.32 0.31 0.29 0.29 0.32 0.37 0.48 0.39 0.43 0.57 0.55 0.52 0.42 0.39 0.39 0.35 0.41 0.37 0.25 0.20 0.14

GFSMA_prec_precacc12_129.txt.gz
Total_Precipitation_Accumulation
0.05 0.04 0.04 0.02 0.00 0.00 0.01 0.00 0.01 0.02 0.01 0.02 0.03 0.01 0.03 0.07 0.10 0.21 0.23 0.08 0.03 0.20 0.34 0.38 0.23 0.15 0.06 0.01 0.00 0.00 0.00 0.00 0.01 0.00 0.01 0.01 0.01 0.01 0.00 0.01 0.01 0.00 0.01
0.02 0.04 0.03 0.02 0.00 0.01 0.00 0.01 0.02 0.00 0.01 0.01 0.01 0.01 0.01 0.04 0.08 0.13 0.22 0.13 0.07 0.08 0.32 0.56 0.49 0.21 0.03 0.01 0.00 0.00 0.01 0.01 0.01 0.01 0.01 0.01 0.01 0.01 0.00 0.01 0.01 0.00 0.00
0.01 0.01 0.01 0.02 0.01 0.01 0.01 0.02 0.04 0.01 0.01 0.01 0.01 0.00 0.01 0.01 0.05 0.07 0.19 0.21 0.11 0.01 0.08 0.58 0.76 0.45 0.10 0.00 0.00 0.00 0.00 0.01 0.01 0.01 0.01 0.01 0.01 0.01 0.01 0.01 0.00 0.00 0.00
0.01 0.01 0.01 0.00 0.01 0.01 0.01 0.02 0.03 0.03 0.02 0.01 0.01 0.01 0.00 0.00 0.00 0.04 0.09 0.15 0.22 0.07 0.00 0.11 0.51 0.39 0.17 0.03 0.00 0.01 0.00 0.01 0.01 0.01 0.01 0.01 0.01 0.01 0.00 0.00 0.00 0.01 0.00
0.00 0.00 0.01 0.00 0.02 0.01 0.01 0.01 0.03 0.04 0.01 0.01 0.00 0.01 0.01 0.00 0.01 0.01 0.03 0.10 0.20 0.24 0.11 0.06 0.13 0.14 0.11 0.07 0.02 0.00 0.00 0.00 0.01 0.01 0.01 0.00 0.01 0.01 0.01 0.01 0.01 0.01 0.00
0.01 0.00 0.00 0.01 0.01 0.02 0.01 0.01 0.02 0.01 0.01 0.02 0.01 0.00 0.01 0.00 0.01 0.01 0.02 0.05 0.10 0.18 0.27 0.14 0.06 0.07 0.03 0.02 0.03 0.01 0.00 0.00 0.00 0.01 0.01 0.00 0.01 0.01 0.01 0.01 0.01 0.01 0.01
0.01 0.00 0.00 0.01 0.01 0.01 0.01 0.00 0.01 0.02 0.02 0.03 0.02 0.02 0.02 0.01 0.01 0.01 0.01 0.01 0.03 0.10 0.17 0.22 0.12 0.08 0.04 0.02 0.02 0.04 0.01 0.01 0.01 0.01 0.01 0.01 0.01 0.01 0.01 0.01 0.01 0.01 0.00
0.00 0.00 0.00 0.00 0.00 0.00 0.01 0.01 0.01 0.01 0.02 0.03 0.02 0.02 0.02 0.02 0.01 0.00 0.00 0.01 0.02 0.05 0.06 0.08 0.14 0.10 0.05 0.02 0.01 0.02 0.03 0.04 0.04 0.02 0.02 0.02 0.01 0.00 0.00 0.01 0.01 0.01 0.01
0.01 0.00 0.00 0.00 0.00 0.00 0.00 0.00 0.01 0.01 0.01 0.02 0.01 0.01 0.01 0.00 0.00 0.00 0.01 0.01 0.02 0.05 0.06 0.07 0.06 0.07 0.04 0.01 0.00 0.00 0.00 0.01 0.04 0.04 0.02 0.02 0.02 0.01 0.01 0.01 0.01 0.01 0.01
0.06 0.00 0.00 0.00 0.00 0.00 0.00 0.00 0.00 0.00 0.01 0.01 0.01 0.00 0.00 0.00 0.01 0.01 0.01 0.01 0.01 0.02 0.03 0.05 0.04 0.08 0.06 0.03 0.00 0.00 0.00 0.00 0.01 0.04 0.06 0.04 0.01 0.01 0.01 0.00 0.01 0.01 0.01
0.13 0.02 0.00 0.01 0.00 0.00 0.00 0.00 0.00 0.01 0.01 0.01 0.01 0.00 0.00 0.01 0.01 0.01 0.01 0.01 0.00 0.01 0.01 0.04 0.05 0.07 0.06 0.05 0.02 0.01 0.01 0.00 0.00 0.01 0.03 0.05 0.03 0.01 0.01 0.01 0.01 0.01 0.01
0.16 0.04 0.01 0.01 0.01 0.01 0.00 0.00 0.00 0.01 0.01 0.01 0.02 0.01 0.01 0.01 0.01 0.03 0.02 0.02 0.01 0.01 0.00 0.02 0.04 0.08 0.10 0.06 0.02 0.00 0.00 0.00 0.00 0.00 0.00 0.01 0.04 0.03 0.01 0.01 0.01 0.01 0.01
0.31 0.11 0.02 0.01 0.02 0.01 0.01 0.01 0.01 0.01 0.01 0.02 0.03 0.02 0.02 0.01 0.01 0.01 0.02 0.04 0.03 0.03 0.04 0.03 0.02 0.05 0.05 0.07 0.03 0.01 0.00 0.00 0.00 0.00 0.00 0.00 0.00 0.01 0.02 0.01 0.01 0.01 0.01
0.66 0.30 0.18 0.16 0.09 0.06 0.06 0.06 0.04 0.05 0.04 0.04 0.05 0.04 0.04 0.02 0.04 0.07 0.05 0.08 0.06 0.05 0.03 0.02 0.01 0.02 0.02 0.01 0.01 0.04 0.02 0.01 0.01 0.00 0.00 0.00 0.00 0.00 0.00 0.00 0.01 0.01 0.01
1.60 1.09 0.48 0.31 0.17 0.25 0.27 0.26 0.11 0.12 0.11 0.08 0.11 0.14 0.12 0.07 0.13 0.13 0.19 0.22 0.20 0.16 0.07 0.03 0.04 0.01 0.01 0.01 0.01 0.03 0.02 0.00 0.01 0.00 0.00 0.00 0.00 0.00 0.00 0.00 0.00 0.00 0.00
2.72 2.06 0.82 0.57 0.45 0.49 0.56 0.38 0.29 0.27 0.23 0.16 0.19 0.32 0.34 0.33 0.40 0.52 0.56 0.54 0.55 0.61 0.47 0.10 0.10 0.06 0.05 0.05 0.03 0.03 0.01 0.02 0.02 0.02 0.01 0.01 0.01 0.01 0.00 0.00 0.00 0.00 0.00
1.50 2.05 1.29 0.76 0.52 0.47 0.59 0.57 0.43 0.31 0.26 0.23 0.23 0.23 0.32 0.47 0.60 0.47 0.45 0.52 0.51 0.47 0.39 0.12 0.15 0.14 0.11 0.11 0.09 0.08 0.05 0.04 0.02 0.03 0.03 0.03 0.02 0.01 0.01 0.01 0.00 0.00 0.00
1.12 1.01 0.80 1.00 0.94 0.45 0.28 0.28 0.28 0.31 0.32 0.30 0.25 0.31 0.30 0.28 0.21 0.12 0.09 0.06 0.06 0.09 0.16 0.11 0.08 0.08 0.10 0.10 0.12 0.14 0.13 0.12 0.10 0.09 0.05 0.05 0.05 0.05 0.05 0.04 0.03 0.01 0.00
0.47 0.62 0.55 0.49 0.60 0.38 0.22 0.26 0.19 0.14 0.18 0.22 0.23 0.21 0.20 0.25 0.22 0.11 0.10 0.07 0.08 0.10 0.13 0.14 0.07 0.05 0.04 0.07 0.13 0.15 0.18 0.19 0.17 0.16 0.09 0.09 0.11 0.11 0.11 0.11 0.09 0.06 0.02
0.35 0.32 0.35 0.40 0.37 0.24 0.18 0.17 0.19 0.17 0.16 0.17 0.17 0.16 0.15 0.16 0.17 0.14 0.14 0.11 0.11 0.10 0.10 0.10 0.11 0.11 0.09 0.09 0.13 0.18 0.23 0.25 0.18 0.11 0.12 0.10 0.09 0.10 0.12 0.13 0.12 0.09 0.05
0.23 0.21 0.16 0.16 0.19 0.21 0.21 0.20 0.16 0.12 0.12 0.17 0.20 0.23 0.27 0.37 0.37 0.31 0.30 0.27 0.29 0.30 0.30 0.28 0.25 0.21 0.15 0.08 0.10 0.10 0.14 0.14 0.15 0.15 0.16 0.20 0.20 0.15 0.11 0.11 0.11 0.10 0.08
0.09 0.10 0.09 0.08 0.08 0.08 0.15 0.07 0.06 0.08 0.16 0.31 0.41 0.44 0.51 0.59 0.47 0.48 0.47 0.45 0.43 0.42 0.39 0.33 0.24 0.18 0.15 0.12 0.09 0.15 0.22 0.24 0.16 0.11 0.13 0.19 0.21 0.20 0.15 0.12 0.16 0.17 0.15
0.03 0.03 0.03 0.01 0.01 0.01 0.05 0.02 0.02 0.02 0.04 0.16 0.29 0.27 0.24 0.23 0.21 0.10 0.11 0.12 0.13 0.16 0.15 0.11 0.11 0.13 0.12 0.09 0.08 0.10 0.14 0.10 0.07 0.09 0.21 0.35 0.32 0.28 0.25 0.25 0.31 0.19 0.19
0.01 0.01 0.00 0.00 0.00 0.01 0.01 0.01 0.01 0.01 0.04 0.10 0.16 0.14 0.13 0.13 0.16 0.13 0.10 0.11 0.12 0.14 0.17 0.16 0.10 0.12 0.14 0.12 0.10 0.10 0.12 0.21 0.22 0.19 0.24 0.31 0.25 0.31 0.30 0.27 0.40 0.23 0.20
0.01 0.01 0.00 0.00 0.01 0.02 0.04 0.02 0.02 0.04 0.06 0.07 0.13 0.15 0.17 0.15 0.27 0.20 0.10 0.12 0.17 0.19 0.27 0.29 0.27 0.30 0.28 0.22 0.16 0.16 0.31 0.43 0.35 0.24 0.16 0.16 0.19 0.23 0.27 0.29 0.31 0.39 0.30
0.01 0.01 0.01 0.01 0.01 0.01 0.01 0.01 0.02 0.05 0.09 0.13 0.14 0.20 0.32 0.29 0.32 0.30 0.27 0.30 0.31 0.33 0.31 0.29 0.27 0.24 0.22 0.24 0.37 0.33 0.39 0.54 0.52 0.44 0.35 0.37 0.36 0.30 0.35 0.29 0.20 0.21 0.19

GFSMA_prec_precacc12_132.txt.gz
Total_Precipitation_Accumulation
0.04 0.03 0.04 0.02 0.00 0.00 0.01 0.00 0.01 0.02 0.01 0.03 0.04 0.01 0.02 0.04 0.04 0.11 0.17 0.05 0.01 0.10 0.09 0.16 0.20 0.15 0.07 0.01 0.01 0.01 0.00 0.00 0.00 0.00 0.00 0.01 0.01 0.01 0.01 0.02 0.02 0.01 0.01
0.02 0.03 0.02 0.02 0.00 0.01 0.00 0.00 0.01 0.00 0.01 0.01 0.03 0.05 0.01 0.02 0.03 0.07 0.12 0.03 0.00 0.01 0.15 0.20 0.19 0.19 0.04 0.01 0.01 0.00 0.01 0.01 0.01 0.01 0.00 0.01 0.01 0.01 0.01 0.01 0.01 0.01 0.01
0.01 0.01 0.01 0.02 0.00 0.00 0.01 0.02 0.03 0.01 0.01 0.01 0.02 0.06 0.02 0.01 0.02 0.03 0.09 0.10 0.02 0.00 0.03 0.10 0.14 0.26 0.09 0.00 0.02 0.01 0.01 0.00 0.01 0.01 0.01 0.01 0.01 0.01 0.01 0.01 0.01 0.01 0.00
0.01 0.01 0.01 0.00 0.01 0.01 0.00 0.02 0.03 0.02 0.02 0.02 0.02 0.02 0.01 0.00 0.00 0.02 0.05 0.09 0.09 0.04 0.00 0.00 0.07 0.14 0.10 0.04 0.01 0.01 0.01 0.02 0.01 0.01 0.01 0.00 0.01 0.01 0.01 0.01 0.00 0.01 0.01
0.04 0.01 0.01 0.00 0.01 0.01 0.01 0.02 0.03 0.04 0.02 0.01 0.02 0.05 0.04 0.01 0.01 0.01 0.02 0.08 0.13 0.14 0.10 0.02 0.00 0.02 0.04 0.05 0.07 0.05 0.04 0.01 0.01 0.01 0.01 0.00 0.01 0.01 0.01 0.01 0.01 0.01 0.01
0.24 0.08 0.01 0.01 0.02 0.02 0.01 0.01 0.02 0.02 0.01 0.01 0.01 0.02 0.04 0.03 0.02 0.02 0.01 0.03 0.07 0.11 0.18 0.13 0.01 0.00 0.00 0.01 0.04 0.05 0.04 0.01 0.00 0.00 0.01 0.00 0.01 0.01 0.01 0.01 0.01 0.01 0.01
0.37 0.22 0.05 0.02 0.02 0.01 0.01 0.00 0.02 0.02 0.02 0.02 0.02 0.02 0.02 0.02 0.03 0.03 0.02 0.02 0.02 0.05 0.10 0.17 0.07 0.03 0.01 0.01 0.01 0.04 0.02 0.02 0.01 0.00 0.01 0.01 0.01 0.01 0.01 0.01 0.01 0.01 0.01
0.36 0.31 0.14 0.04 0.01 0.01 0.01 0.01 0.01 0.01 0.02 0.03 0.02 0.02 0.03 0.02 0.01 0.01 0.01 0.00 0.01 0.03 0.03 0.06 0.10 0.04 0.01 0.01 0.01 0.02 0.03 0.06 0.06 0.03 0.01 0.01 0.00 0.00 0.00 0.01 0.01 0.01 0.01
0.29 0.28 0.26 0.11 0.05 0.02 0.00 0.00 0.00 0.00 0.01 0.02 0.01 0.01 0.01 0.00 0.00 0.00 0.00 0.00 0.01 0.03 0.05 0.06 0.05 0.04 0.02 0.01 0.00 0.00 0.00 0.01 0.04 0.08 0.05 0.02 0.01 0.01 0.02 0.01 0.01 0.01 0.01
0.29 0.26 0.22 0.17 0.07 0.02 0.00 0.00 0.00 0.00 0.00 0.01 0.01 0.00 0.00 0.00 0.00 0.00 0.00 0.00 0.00 0.00 0.02 0.04 0.04 0.04 0.03 0.02 0.00 0.00 0.00 0.00 0.00 0.03 0.09 0.08 0.03 0.00 0.00 0.00 0.00 0.01 0.01
0.28 0.32 0.38 0.20 0.08 0.04 0.01 0.00 0.00 0.01 0.01 0.00 0.00 0.00 0.00 0.00 0.00 0.00 0.00 0.00 0.00 0.00 0.01 0.04 0.03 0.05 0.04 0.04 0.01 0.00 0.01 0.00 0.00 0.00 0.02 0.07 0.07 0.02 0.00 0.00 0.00 0.00 0.01
0.25 0.37 0.49 0.64 0.30 0.06 0.01 0.00 0.00 0.01 0.01 0.01 0.01 0.01 0.00 0.00 0.00 0.03 0.02 0.01 0.01 0.00 0.00 0.01 0.03 0.03 0.04 0.03 0.01 0.00 0.00 0.00 0.00 0.00 0.00 0.01 0.04 0.04 0.01 0.01 0.00 0.00 0.00
0.35 0.33 0.50 0.79 0.50 0.13 0.03 0.02 0.01 0.01 0.01 0.01 0.02 0.01 0.01 0.01 0.00 0.00 0.01 0.02 0.02 0.01 0.01 0.01 0.01 0.04 0.03 0.03 0.02 0.01 0.00 0.00 0.00 0.00 0.00 0.00 0.00 0.01 0.01 0.00 0.00 0.00 0.00
0.70 0.59 0.64 0.64 0.71 0.36 0.10 0.07 0.05 0.05 0.04 0.03 0.04 0.04 0.04 0.02 0.04 0.06 0.04 0.07 0.04 0.02 0.02 0.02 0.02 0.01 0.02 0.02 0.01 0.03 0.02 0.01 0.01 0.00 0.00 0.00 0.00 0.00 0.00 0.00 0.00 0.01 0.01
1.60 1.24 1.08 0.83 0.64 0.60 0.33 0.26 0.13 0.13 0.12 0.08 0.10 0.14 0.11 0.07 0.13 0.13 0.18 0.22 0.20 0.12 0.11 0.12 0.08 0.06 0.06 0.04 0.02 0.03 0.02 0.00 0.01 0.00 0.00 0.00 0.00 0.00 0.00 0.01 0.01 0.00 0.00
2.70 2.17 1.66 1.43 1.32 1.09 0.63 0.25 0.24 0.23 0.23 0.18 0.21 0.33 0.36 0.34 0.42 0.52 0.56 0.55 0.59 0.68 0.58 0.27 0.24 0.16 0.14 0.08 0.06 0.06 0.03 0.03 0.02 0.02 0.01 0.01 0.01 0.01 0.01 0.01 0.01 0.02 0.01
1.47 2.27 2.44 2.00 1.86 1.29 0.80 0.56 0.42 0.31 0.26 0.26 0.26 0.25 0.34 0.51 0.67 0.59 0.57 0.66 0.60 0.49 0.40 0.15 0.21 0.20 0.13 0.11 0.10 0.14 0.11 0.08 0.03 0.03 0.03 0.03 0.02 0.01 0.01 0.01 0.00 0.01 0.01
1.17 1.24 1.75 2.21 1.81 1.63 1.00 0.58 0.47 0.46 0.47 0.42 0.31 0.39 0.39 0.34 0.29 0.25 0.27 0.28 0.36 0.31 0.17 0.07 0.07 0.10 0.09 0.08 0.09 0.11 0.12 0.14 0.09 0.09 0.06 0.05 0.05 0.05 0.05 0.05 0.04 0.03 0.02
0.51 0.74 1.07 1.33 1.42 1.71 1.42 0.78 0.51 0.37 0.43 0.53 0.47 0.38 0.30 0.33 0.30 0.21 0.19 0.18 0.21 0.22 0.16 0.13 0.05 0.05 0.02 0.01 0.03 0.06 0.08 0.15 0.17 0.17 0.09 0.08 0.10 0.11 0.11 0.11 0.11 0.10 0.10
0.49 0.46 0.55 0.86 1.09 0.95 0.98 1.00 1.02 0.76 0.34 0.31 0.42 0.50 0.37 0.26 0.27 0.23 0.23 0.17 0.17 0.19 0.18 0.16 0.14 0.11 0.06 0.03 0.07 0.11 0.14 0.20 0.18 0.12 0.13 0.10 0.08 0.09 0.11 0.13 0.12 0.12 0.11
0.37 0.42 0.44 0.47 0.63 0.83 0.75 0.65 0.69 0.64 0.41 0.31 0.27 0.25 0.31 0.33 0.38 0.34 0.34 0.30 0.31 0.32 0.31 0.31 0.27 0.22 0.14 0.06 0.03 0.06 0.09 0.10 0.15 0.15 0.16 0.20 0.19 0.15 0.11 0.11 0.11 0.11 0.10
0.16 0.21 0.27 0.30 0.30 0.33 0.49 0.55 0.51 0.47 0.41 0.34 0.28 0.20 0.24 0.33 0.34 0.53 0.54 0.48 0.44 0.42 0.39 0.36 0.28 0.23 0.19 0.17 0.15 0.14 0.17 0.20 0.17 0.11 0.13 0.18 0.20 0.19 0.15 0.12 0.16 0.17 0.15
0.13 0.13 0.16 0.16 0.13 0.14 0.13 0.16 0.23 0.20 0.17 0.17 0.15 0.16 0.15 0.13 0.15 0.10 0.12 0.11 0.11 0.13 0.12 0.10 0.10 0.13 0.12 0.12 0.11 0.10 0.13 0.15 0.10 0.08 0.16 0.27 0.27 0.25 0.22 0.22 0.26 0.17 0.17
0.00 0.01 0.00 0.00 0.00 0.01 0.01 0.01 0.00 0.00 0.00 0.01 0.03 0.04 0.06 0.07 0.11 0.10 0.08 0.11 0.12 0.13 0.14 0.13 0.10 0.11 0.13 0.12 0.10 0.11 0.10 0.12 0.13 0.13 0.16 0.20 0.18 0.24 0.24 0.22 0.31 0.17 0.15
0.01 0.01 0.01 0.00 0.00 0.00 0.00 0.00 0.00 0.00 0.00 0.00 0.00 0.02 0.05 0.06 0.17 0.14 0.07 0.09 0.15 0.17 0.21 0.21 0.18 0.21 0.22 0.18 0.13 0.12 0.19 0.26 0.19 0.11 0.09 0.11 0.11 0.14 0.18 0.22 0.24 0.33 0.25
0.00 0.01 0.01 0.00 0.00 0.00 0.00 0.00 0.00 0.01 0.02 0.02 0.02 0.03 0.10 0.09 0.15 0.16 0.16 0.24 0.25 0.25 0.25 0.24 0.22 0.18 0.15 0.16 0.25 0.23 0.26 0.33 0.31 0.23 0.19 0.23 0.22 0.21 0.27 0.22 0.14 0.15 0.15

GFSMA_prec_precacc12_138.txt.gz
Total_Precipitation_Accumulation
0.05 0.06 0.05 0.05 0.02 0.01 0.01 0.00 0.00 0.00 0.00 0.00 0.01 0.00 0.00 0.00 0.01 0.00 0.00 0.00 0.00 0.04 0.12 0.16 0.17 0.31 0.27 0.22 0.17 0.09 0.07 0.03 0.01 0.00 0.00 0.01 0.01 0.01 0.01 0.02 0.04 0.04 0.03
0.13 0.16 0.12 0.08 0.05 0.02 0.02 0.01 0.00 0.00 0.00 0.00 0.03 0.05 0.00 0.00 0.02 0.01 0.00 0.00 0.00 0.00 0.05 0.12 0.15 0.11 0.15 0.20 0.20 0.14 0.06 0.04 0.02 0.02 0.00 0.00 0.01 0.01 0.01 0.01 0.02 0.03 0.03
0.20 0.19 0.21 0.16 0.06 0.03 0.01 0.02 0.01 0.01 0.00 0.00 0.02 0.11 0.07 0.01 0.01 0.01 0.01 0.00 0.00 0.00 0.01 0.05 0.06 0.03 0.06 0.17 0.15 0.14 0.11 0.03 0.02 0.01 0.00 0.00 0.00 0.01 0.01 0.01 0.01 0.02 0.02
0.23 0.21 0.21 0.19 0.14 0.07 0.03 0.02 0.02 0.01 0.01 0.01 0.01 0.04 0.04 0.05 0.02 0.01 0.01 0.00 0.00 0.00 0.00 0.00 0.02 0.04 0.02 0.09 0.12 0.10 0.10 0.06 0.02 0.01 0.00 0.00 0.00 0.00 0.01 0.01 0.01 0.01 0.01
0.26 0.23 0.21 0.16 0.19 0.17 0.07 0.04 0.03 0.02 0.02 0.01 0.02 0.08 0.08 0.03 0.02 0.01 0.01 0.01 0.00 0.00 0.00 0.00 0.00 0.01 0.04 0.05 0.16 0.17 0.10 0.04 0.02 0.03 0.01 0.00 0.00 0.00 0.01 0.01 0.01 0.01 0.01
0.35 0.31 0.27 0.30 0.27 0.17 0.11 0.07 0.08 0.07 0.02 0.02 0.05 0.08 0.09 0.08 0.06 0.02 0.01 0.01 0.01 0.00 0.00 0.00 0.00 0.00 0.01 0.05 0.14 0.23 0.21 0.18 0.04 0.00 0.01 0.00 0.00 0.00 0.01 0.00 0.01 0.01 0.01
0.40 0.39 0.37 0.38 0.43 0.44 0.30 0.11 0.12 0.10 0.05 0.08 0.12 0.08 0.06 0.08 0.10 0.08 0.03 0.02 0.01 0.00 0.00 0.00 0.00 0.00 0.00 0.00 0.00 0.09 0.13 0.18 0.17 0.07 0.03 0.00 0.00 0.00 0.00 0.00 0.01 0.01 0.01
0.38 0.40 0.37 0.36 0.41 0.60 0.71 0.44 0.10 0.04 0.06 0.15 0.07 0.06 0.04 0.04 0.02 0.05 0.04 0.01 0.00 0.00 0.00 0.00 0.00 0.00 0.00 0.00 0.00 0.00 0.04 0.11 0.17 0.15 0.08 0.01 0.00 0.00 0.00 0.00 0.00 0.00 0.01
0.31 0.33 0.39 0.36 0.48 0.67 0.79 0.65 0.21 0.07 0.04 0.10 0.08 0.03 0.01 0.01 0.00 0.00 0.00 0.00 0.00 0.00 0.00 0.00 0.00 0.00 0.00 0.00 0.00 0.00 0.00 0.00 0.06 0.17 0.17 0.06 0.01 0.01 0.01 0.00 0.00 0.00 0.00
0.29 0.29 0.29 0.51 0.51 0.73 0.94 0.82 0.65 0.27 0.18 0.10 0.12 0.05 0.00 0.00 0.00 0.00 0.00 0.00 0.00 0.00 0.00 0.00 0.00 0.00 0.00 0.00 0.00 0.00 0.00 0.00 0.00 0.02 0.11 0.14 0.09 0.01 0.00 0.00 0.00 0.00 0.00
0.28 0.32 0.39 0.29 0.66 0.94 0.98 1.01 1.09 0.71 0.25 0.17 0.08 0.05 0.01 0.00 0.00 0.00 0.00 0.00 0.00 0.00 0.00 0.00 0.00 0.00 0.00 0.00 0.00 0.00 0.00 0.00 0.00 0.00 0.01 0.07 0.12 0.07 0.01 0.00 0.00 0.00 0.00
0.25 0.37 0.49 0.69 0.59 0.68 0.94 0.95 1.06 0.90 0.56 0.30 0.20 0.11 0.03 0.00 0.00 0.02 0.01 0.01 0.00 0.00 0.00 0.00 0.00 0.00 0.00 0.00 0.00 0.00 0.00 0.00 0.00 0.00 0.00 0.00 0.03 0.06 0.04 0.01 0.01 0.00 0.00
0.33 0.32 0.49 0.81 0.94 0.75 0.81 0.87 0.83 1.06 0.75 0.41 0.21 0.13 0.07 0.01 0.00 0.00 0.01 0.01 0.01 0.00 0.00 0.00 0.00 0.00 0.00 0.00 0.00 0.00 0.00 0.00 0.00 0.00 0.00 0.00 0.00 0.01 0.01 0.01 0.01 0.01 0.01
0.58 0.56 0.60 0.62 0.75 0.61 0.66 0.68 0.82 0.81 0.86 0.82 0.34 0.27 0.14 0.07 0.01 0.03 0.03 0.05 0.02 0.02 0.01 0.01 0.01 0.00 0.01 0.01 0.00 0.00 0.00 0.00 0.00 0.00 0.00 0.00 0.00 0.00 0.01 0.01 0.01 0.01 0.01
1.13 1.09 0.96 0.76 0.58 0.55 0.57 0.63 0.60 0.69 0.66 0.59 0.41 0.26 0.21 0.18 0.09 0.09 0.12 0.17 0.14 0.10 0.10 0.12 0.08 0.07 0.07 0.05 0.02 0.02 0.00 0.00 0.01 0.00 0.00 0.00 0.00 0.00 0.01 0.01 0.01 0.01 0.01
1.80 1.72 1.45 1.23 1.13 1.05 0.77 0.54 0.51 0.60 0.65 0.56 0.57 0.49 0.34 0.25 0.22 0.37 0.47 0.53 0.55 0.62 0.54 0.26 0.23 0.17 0.14 0.07 0.05 0.07 0.05 0.07 0.06 0.04 0.02 0.01 0.01 0.01 0.01 0.01 0.02 0.02 0.04
1.42 2.18 2.30 1.80 1.70 1.23 0.96 0.90 0.64 0.46 0.48 0.67 0.71 0.54 0.53 0.39 0.35 0.41 0.51 0.66 0.62 0.50 0.37 0.16 0.19 0.21 0.13 0.10 0.08 0.10 0.10 0.08 0.07 0.07 0.06 0.03 0.02 0.03 0.02 0.02 0.01 0.01 0.02
0.93 1.12 1.64 2.10 1.73 1.62 1.17 0.92 0.84 0.88 0.87 0.80 0.71 0.83 0.74 0.52 0.45 0.39 0.42 0.51 0.55 0.49 0.35 0.22 0.16 0.14 0.10 0.07 0.06 0.04 0.03 0.03 0.02 0.01 0.03 0.03 0.04 0.05 0.06 0.06 0.06 0.05 0.03
0.53 0.72 1.00 1.25 1.37 1.70 1.52 1.28 1.06 0.80 0.80 0.83 0.80 0.70 0.63 0.62 0.55 0.39 0.32 0.29 0.32 0.40 0.36 0.23 0.11 0.12 0.06 0.03 0.02 0.02 0.02 0.03 0.02 0.03 0.04 0.03 0.04 0.06 0.09 0.12 0.12 0.11 0.11
0.77 0.61 0.59 0.84 1.10 1.16 1.44 1.59 1.69 1.39 1.06 0.86 0.84 0.89 0.78 0.67 0.65 0.54 0.48 0.39 0.33 0.36 0.32 0.31 0.27 0.22 0.17 0.14 0.15 0.11 0.08 0.05 0.03 0.03 0.04 0.04 0.04 0.04 0.07 0.11 0.14 0.14 0.12
1.17 0.84 0.67 0.56 0.68 0.98 1.16 1.26 1.36 1.47 1.45 1.43 1.17 0.93 1.01 1.07 0.91 0.80 0.73 0.72 0.59 0.52 0.58 0.62 0.64 0.61 0.49 0.25 0.12 0.12 0.10 0.04 0.02 0.02 0.02 0.02 0.03 0.03 0.04 0.05 0.07 0.10 0.11
1.06 0.76 0.78 0.47 0.40 0.48 0.75 0.97 1.07 1.07 0.97 1.02 1.11 1.09 0.96 0.99 0.99 0.95 0.92 0.76 0.66 0.67 0.68 0.75 0.73 0.66 0.59 0.56 0.49 0.32 0.19 0.17 0.16 0.04 0.01 0.02 0.01 0.02 0.01 0.02 0.08 0.07 0.08
0.19 0.22 0.26 0.23 0.20 0.26 0.23 0.29 0.50 0.67 0.74 0.78 0.81 0.79 0.81 0.83 0.79 0.73 0.68 0.63 0.60 0.54 0.48 0.44 0.50 0.54 0.47 0.38 0.26 0.21 0.21 0.21 0.14 0.07 0.06 0.04 0.02 0.02 0.04 0.12 0.22 0.14 0.11
0.01 0.01 0.02 0.02 0.03 0.03 0.02 0.02 0.02 0.05 0.09 0.13 0.15 0.16 0.18 0.23 0.31 0.35 0.34 0.34 0.34 0.35 0.35 0.31 0.28 0.30 0.31 0.29 0.23 0.17 0.12 0.07 0.06 0.08 0.13 0.10 0.03 0.03 0.06 0.10 0.21 0.12 0.09
0.00 0.00 0.01 0.01 0.01 0.01 0.01 0.01 0.00 0.01 0.01 0.02 0.02 0.02 0.02 0.02 0.02 0.02 0.01 0.01 0.02 0.04 0.08 0.09 0.08 0.08 0.09 0.08 0.06 0.07 0.10 0.12 0.08 0.05 0.07 0.11 0.06 0.04 0.05 0.07 0.11 0.20 0.17
0.00 0.00 0.00 0.00 0.00 0.01 0.01 0.01 0.00 0.00 0.00 0.00 0.00 0.01 0.01 0.01 0.01 0.01 0.01 0.01 0.01 0.01 0.01 0.01 0.02 0.02 0.02 0.03 0.05 0.05 0.06 0.11 0.15 0.12 0.12 0.16 0.11 0.08 0.08 0.07 0.05 0.06 0.07

GFSMA_prec_precacc12_141.txt.gz
Total_Precipitation_Accumulation
0.06 0.07 0.06 0.10 0.09 0.05 0.02 0.01 0.01 0.01 0.00 0.00 0.01 0.00 0.00 0.00 0.00 0.00 0.00 0.00 0.00 0.05 0.15 0.21 0.21 0.35 0.37 0.26 0.20 0.16 0.16 0.11 0.02 0.00 0.00 0.00 0.01 0.01 0.00 0.01 0.04 0.04 0.04
0.13 0.16 0.13 0.12 0.12 0.08 0.05 0.02 0.01 0.01 0.01 0.00 0.03 0.04 0.00 0.00 0.01 0.00 0.00 0.00 0.00 0.00 0.06 0.14 0.20 0.22 0.26 0.30 0.27 0.19 0.13 0.09 0.05 0.03 0.01 0.00 0.00 0.01 0.01 0.01 0.02 0.04 0.03
0.20 0.20 0.21 0.17 0.12 0.08 0.07 0.06 0.04 0.02 0.01 0.01 0.02 0.11 0.07 0.01 0.00 0.00 0.00 0.00 0.00 0.00 0.01 0.05 0.07 0.08 0.15 0.23 0.17 0.16 0.16 0.09 0.09 0.07 0.03 0.00 0.00 0.00 0.01 0.01 0.01 0.02 0.02
0.22 0.21 0.22 0.19 0.15 0.11 0.08 0.08 0.08 0.04 0.02 0.02 0.02 0.04 0.04 0.05 0.02 0.01 0.01 0.00 0.00 0.00 0.00 0.00 0.02 0.04 0.04 0.13 0.15 0.10 0.11 0.08 0.05 0.04 0.03 0.00 0.00 0.00 0.00 0.01 0.01 0.01 0.01
0.26 0.23 0.21 0.16 0.20 0.20 0.14 0.15 0.16 0.11 0.04 0.03 0.03 0.08 0.07 0.03 0.02 0.01 0.01 0.00 0.00 0.00 0.00 0.00 0.00 0.01 0.04 0.06 0.19 0.20 0.11 0.05 0.03 0.03 0.02 0.00 0.00 0.00 0.00 0.01 0.01 0.01 0.01
0.34 0.31 0.27 0.30 0.26 0.18 0.20 0.34 0.31 0.20 0.07 0.03 0.07 0.10 0.09 0.09 0.06 0.02 0.01 0.01 0.00 0.00 0.00 0.00 0.00 0.00 0.01 0.05 0.16 0.26 0.23 0.19 0.04 0.00 0.01 0.00 0.00 0.00 0.00 0.00 0.01 0.01 0.01
0.39 0.39 0.37 0.38 0.42 0.44 0.37 0.33 0.40 0.48 0.22 0.12 0.18 0.12 0.08 0.10 0.12 0.08 0.04 0.03 0.01 0.00 0.00 0.00 0.00 0.00 0.00 0.00 0.00 0.11 0.15 0.23 0.19 0.07 0.03 0.00 0.00 0.00 0.00 0.00 0.00 0.01 0.01
0.38 0.40 0.38 0.36 0.41 0.60 0.72 0.76 0.71 0.65 0.31 0.23 0.12 0.08 0.06 0.05 0.03 0.06 0.04 0.02 0.01 0.00 0.00 0.00 0.00 0.00 0.00 0.00 0.00 0.00 0.04 0.13 0.22 0.18 0.09 0.01 0.00 0.00 0.00 0.00 0.00 0.00 0.01
0.30 0.33 0.40 0.37 0.48 0.67 0.79 0.75 0.81 0.84 0.84 0.67 0.19 0.06 0.02 0.03 0.00 0.00 0.00 0.01 0.00 0.00 0.00 0.00 0.00 0.00 0.00 0.00 0.00 0.00 0.00 0.00 0.06 0.19 0.22 0.07 0.00 0.01 0.01 0.00 0.00 0.00 0.00
0.23 0.29 0.29 0.51 0.51 0.73 0.95 0.85 0.75 0.64 0.74 0.65 0.45 0.14 0.04 0.00 0.00 0.00 0.00 0.00 0.00 0.00 0.00 0.00 0.00 0.00 0.00 0.00 0.00 0.00 0.00 0.00 0.00 0.02 0.11 0.15 0.09 0.01 0.00 0.00 0.00 0.00 0.00
0.15 0.31 0.39 0.29 0.66 0.94 0.98 1.01 1.13 0.99 0.70 0.60 0.59 0.25 0.10 0.03 0.00 0.00 0.00 0.00 0.00 0.00 0.00 0.00 0.00 0.00 0.00 0.00 0.00 0.00 0.00 0.00 0.00 0.00 0.01 0.06 0.12 0.08 0.01 0.00 0.00 0.00 0.00
0.09 0.33 0.49 0.69 0.59 0.68 0.94 0.95 1.06 0.98 0.98 0.84 0.77 0.47 0.14 0.06 0.01 0.00 0.00 0.00 0.00 0.00 0.00 0.00 0.00 0.00 0.00 0.00 0.00 0.00 0.00 0.00 0.00 0.00 0.00 0.00 0.03 0.06 0.05 0.02 0.01 0.00 0.00
0.05 0.23 0.49 0.82 0.94 0.75 0.81 0.87 0.82 1.06 0.88 0.78 0.61 0.56 0.31 0.09 0.04 0.02 0.00 0.00 0.00 0.00 0.00 0.00 0.00 0.00 0.00 0.00 0.00 0.00 0.00 0.00 0.00 0.00 0.00 0.00 0.00 0.01 0.02 0.02 0.01 0.01 0.01
0.05 0.31 0.53 0.57 0.75 0.61 0.65 0.68 0.81 0.80 0.85 0.88 0.66 0.64 0.61 0.36 0.15 0.06 0.03 0.02 0.00 0.01 0.01 0.01 0.01 0.00 0.01 0.01 0.00 0.00 0.00 0.00 0.00 0.00 0.00 0.00 0.00 0.00 0.01 0.01 0.01 0.01 0.01
0.06 0.22 0.71 0.65 0.58 0.54 0.55 0.58 0.57 0.65 0.62 0.59 0.58 0.61 0.65 0.63 0.36 0.21 0.10 0.05 0.05 0.04 0.07 0.09 0.06 0.07 0.07 0.05 0.02 0.02 0.00 0.00 0.01 0.00 0.00 0.00 0.00 0.00 0.00 0.00 0.01 0.01 0.01
0.11 0.26 1.02 1.02 0.94 0.89 0.65 0.48 0.47 0.57 0.62 0.52 0.56 0.54 0.62 0.71 0.61 0.36 0.25 0.18 0.16 0.18 0.23 0.19 0.16 0.13 0.13 0.07 0.05 0.07 0.05 0.06 0.06 0.04 0.02 0.01 0.00 0.00 0.00 0.01 0.01 0.02 0.04
0.25 0.41 1.32 1.43 1.42 0.95 0.74 0.69 0.50 0.37 0.44 0.64 0.72 0.61 0.62 0.62 0.74 0.76 0.50 0.42 0.31 0.23 0.15 0.09 0.09 0.13 0.12 0.10 0.08 0.10 0.10 0.08 0.07 0.08 0.06 0.03 0.03 0.02 0.01 0.01 0.01 0.01 0.02
0.25 0.39 1.06 1.31 0.94 1.26 1.01 0.80 0.77 0.76 0.71 0.62 0.58 0.70 0.72 0.58 0.62 0.64 0.64 0.70 0.70 0.59 0.37 0.21 0.14 0.10 0.08 0.06 0.05 0.04 0.03 0.03 0.02 0.01 0.04 0.03 0.03 0.04 0.04 0.04 0.04 0.04 0.04
0.34 0.33 0.70 0.96 0.94 1.45 1.43 1.17 0.99 0.79 0.76 0.72 0.67 0.56 0.57 0.71 0.72 0.65 0.66 0.54 0.49 0.52 0.45 0.27 0.15 0.13 0.07 0.03 0.03 0.04 0.04 0.04 0.02 0.03 0.04 0.03 0.03 0.02 0.02 0.02 0.04 0.07 0.10
0.72 0.58 0.48 0.68 0.94 1.11 1.42 1.54 1.62 1.36 1.06 0.83 0.77 0.80 0.71 0.63 0.78 0.92 0.84 0.78 0.66 0.56 0.45 0.44 0.36 0.22 0.16 0.15 0.16 0.10 0.09 0.06 0.04 0.03 0.04 0.04 0.04 0.03 0.03 0.03 0.04 0.06 0.10
1.46 1.13 0.96 0.65 0.64 0.97 1.20 1.25 1.49 1.57 1.54 1.53 1.19 0.90 0.97 1.03 0.87 0.81 0.94 1.07 1.01 0.91 0.90 0.79 0.74 0.65 0.50 0.31 0.21 0.18 0.11 0.05 0.03 0.02 0.02 0.02 0.03 0.02 0.02 0.02 0.02 0.04 0.06
1.12 0.91 1.10 0.69 0.66 0.61 0.89 1.25 1.44 1.50 1.33 1.24 1.27 1.18 1.02 1.01 1.00 0.96 0.98 0.93 0.83 0.88 0.93 0.88 0.83 0.73 0.67 0.69 0.69 0.51 0.37 0.31 0.26 0.13 0.03 0.01 0.02 0.01 0.01 0.01 0.06 0.04 0.04
0.20 0.27 0.39 0.34 0.28 0.28 0.25 0.39 0.68 0.97 1.15 1.15 1.05 0.93 0.88 0.88 0.83 0.80 0.79 0.75 0.76 0.74 0.67 0.66 0.70 0.72 0.61 0.56 0.52 0.53 0.51 0.47 0.44 0.36 0.22 0.12 0.10 0.06 0.03 0.06 0.13 0.09 0.09
0.01 0.03 0.07 0.08 0.06 0.03 0.02 0.02 0.03 0.06 0.11 0.16 0.17 0.18 0.20 0.25 0.34 0.40 0.44 0.48 0.49 0.52 0.59 0.59 0.53 0.50 0.50 0.49 0.46 0.40 0.35 0.27 0.25 0.27 0.30 0.21 0.12 0.09 0.04 0.03 0.09 0.05 0.04
0.00 0.00 0.01 0.02 0.02 0.02 0.00 0.01 0.00 0.01 0.01 0.02 0.03 0.03 0.03 0.04 0.04 0.03 0.02 0.03 0.05 0.07 0.07 0.08 0.09 0.11 0.12 0.11 0.13 0.16 0.21 0.22 0.22 0.17 0.16 0.17 0.08 0.05 0.04 0.03 0.04 0.08 0.04
0.00 0.00 0.00 0.00 0.00 0.01 0.01 0.00 0.00 0.00 0.00 0.00 0.00 0.01 0.01 0.02 0.02 0.03 0.03 0.03 0.03 0.03 0.02 0.01 0.00 0.00 0.01 0.01 0.01 0.01 0.01 0.02 0.03 0.03 0.04 0.08 0.05 0.05 0.05 0.03 0.02 0.02 0.02

GFSMA_prec_precacc12_144.txt.gz
Total_Precipitation_Accumulation
0.06 0.07 0.07 0.11 0.11 0.10 0.10 0.08 0.07 0.07 0.05 0.03 0.02 0.01 0.00 0.01 0.01 0.00 0.00 0.00 0.00 0.01 0.09 0.19 0.25 0.38 0.43 0.31 0.22 0.17 0.20 0.20 0.11 0.03 0.01 0.00 0.00 0.01 0.00 0.01 0.04 0.05 0.05
0.13 0.16 0.13 0.12 0.12 0.08 0.06 0.08 0.07 0.06 0.08 0.05 0.03 0.01 0.00 0.00 0.01 0.00 0.00 0.00 0.00 0.00 0.03 0.10 0.24 0.25 0.32 0.39 0.34 0.24 0.16 0.13 0.15 0.08 0.01 0.00 0.00 0.00 0.00 0.00 0.02 0.04 0.04
0.20 0.20 0.21 0.17 0.12 0.09 0.08 0.08 0.11 0.12 0.10 0.07 0.04 0.05 0.07 0.01 0.00 0.00 0.00 0.00 0.00 0.00 0.00 0.02 0.06 0.09 0.19 0.27 0.20 0.21 0.17 0.12 0.14 0.11 0.05 0.00 0.00 0.00 0.00 0.00 0.00 0.02 0.03
0.22 0.21 0.22 0.19 0.15 0.11 0.09 0.10 0.11 0.13 0.08 0.04 0.02 0.04 0.06 0.05 0.02 0.01 0.00 0.00 0.00 0.00 0.00 0.00 0.01 0.02 0.04 0.12 0.15 0.11 0.12 0.11 0.10 0.11 0.07 0.01 0.00 0.00 0.00 0.00 0.01 0.01 0.02
0.23 0.22 0.21 0.16 0.20 0.20 0.13 0.16 0.20 0.18 0.12 0.05 0.02 0.04 0.07 0.04 0.02 0.01 0.00 0.00 0.00 0.00 0.00 0.00 0.00 0.01 0.03 0.04 0.14 0.15 0.08 0.05 0.06 0.06 0.03 0.01 0.00 0.00 0.00 0.00 0.01 0.01 0.01
0.11 0.23 0.26 0.29 0.26 0.18 0.19 0.34 0.34 0.27 0.17 0.07 0.07 0.09 0.06 0.10 0.08 0.02 0.00 0.00 0.02 0.03 0.01 0.00 0.00 0.00 0.00 0.05 0.15 0.22 0.21 0.18 0.04 0.03 0.03 0.01 0.01 0.00 0.00 0.00 0.00 0.00 0.01
0.03 0.17 0.31 0.37 0.42 0.44 0.36 0.33 0.40 0.51 0.31 0.28 0.37 0.24 0.13 0.13 0.15 0.09 0.04 0.03 0.03 0.03 0.02 0.01 0.00 0.00 0.00 0.00 0.00 0.10 0.14 0.24 0.21 0.09 0.05 0.01 0.00 0.00 0.00 0.00 0.00 0.00 0.00
0.03 0.09 0.23 0.32 0.41 0.60 0.72 0.76 0.72 0.68 0.38 0.40 0.44 0.40 0.44 0.19 0.07 0.08 0.07 0.06 0.05 0.04 0.03 0.02 0.00 0.00 0.00 0.00 0.00 0.00 0.03 0.13 0.23 0.19 0.09 0.01 0.00 0.00 0.00 0.00 0.00 0.00 0.00
0.03 0.05 0.14 0.26 0.44 0.66 0.80 0.76 0.82 0.86 0.87 0.82 0.43 0.45 0.44 0.22 0.03 0.02 0.02 0.04 0.04 0.04 0.04 0.02 0.01 0.00 0.00 0.00 0.00 0.00 0.00 0.01 0.07 0.18 0.23 0.06 0.00 0.00 0.00 0.00 0.00 0.00 0.00
0.01 0.03 0.07 0.35 0.44 0.71 0.95 0.85 0.75 0.65 0.76 0.76 0.90 0.71 0.50 0.29 0.11 0.04 0.02 0.01 0.04 0.04 0.03 0.02 0.01 0.00 0.00 0.00 0.00 0.00 0.00 0.00 0.00 0.02 0.09 0.13 0.07 0.01 0.00 0.00 0.00 0.00 0.00
0.00 0.01 0.02 0.10 0.58 0.91 0.97 1.01 1.13 0.99 0.71 0.62 0.64 0.55 0.64 0.55 0.33 0.11 0.03 0.02 0.03 0.03 0.04 0.04 0.02 0.00 0.00 0.00 0.00 0.00 0.00 0.00 0.00 0.00 0.00 0.02 0.07 0.07 0.01 0.00 0.00 0.00 0.00
0.00 0.00 0.01 0.06 0.31 0.63 0.93 0.95 1.06 0.98 1.00 0.86 0.79 0.55 0.33 0.38 0.33 0.19 0.05 0.03 0.01 0.00 0.01 0.03 0.03 0.01 0.00 0.00 0.00 0.00 0.00 0.00 0.00 0.00 0.00 0.00 0.01 0.05 0.04 0.01 0.01 0.00 0.00
0.01 0.01 0.01 0.04 0.47 0.63 0.79 0.85 0.82 1.07 0.91 0.82 0.64 0.61 0.47 0.25 0.19 0.16 0.10 0.08 0.06 0.02 0.03 0.03 0.03 0.02 0.00 0.00 0.00 0.00 0.00 0.00 0.00 0.00 0.00 0.00 0.00 0.01 0.02 0.02 0.01 0.01 0.01
0.02 0.01 0.01 0.01 0.08 0.28 0.61 0.67 0.81 0.81 0.87 0.92 0.71 0.67 0.67 0.48 0.30 0.21 0.16 0.13 0.09 0.09 0.04 0.01 0.01 0.01 0.00 0.00 0.00 0.00 0.00 0.00 0.00 0.00 0.00 0.00 0.00 0.00 0.01 0.01 0.01 0.01 0.01
0.05 0.02 0.01 0.03 0.04 0.13 0.46 0.57 0.56 0.64 0.62 0.61 0.61 0.64 0.68 0.69 0.59 0.39 0.28 0.21 0.16 0.14 0.05 0.01 0.01 0.01 0.01 0.01 0.01 0.01 0.00 0.00 0.01 0.00 0.00 0.00 0.00 0.00 0.00 0.00 0.01 0.01 0.01
0.11 0.10 0.09 0.06 0.03 0.12 0.35 0.44 0.44 0.54 0.60 0.52 0.57 0.54 0.62 0.72 0.67 0.62 0.57 0.37 0.28 0.22 0.11 0.03 0.01 0.01 0.01 0.00 0.00 0.02 0.03 0.06 0.07 0.05 0.02 0.01 0.00 0.00 0.00 0.00 0.00 0.00 0.02
0.24 0.11 0.09 0.11 0.13 0.07 0.32 0.53 0.42 0.35 0.43 0.62 0.70 0.61 0.61 0.60 0.68 0.73 0.67 0.61 0.48 0.42 0.28 0.09 0.05 0.04 0.01 0.00 0.01 0.01 0.03 0.04 0.06 0.08 0.06 0.04 0.04 0.02 0.01 0.01 0.01 0.01 0.01
0.16 0.10 0.09 0.12 0.18 0.12 0.27 0.46 0.52 0.59 0.55 0.49 0.49 0.62 0.65 0.53 0.55 0.53 0.55 0.78 0.73 0.64 0.69 0.47 0.25 0.10 0.05 0.02 0.01 0.01 0.00 0.01 0.01 0.03 0.06 0.05 0.04 0.04 0.04 0.05 0.05 0.05 0.04
0.34 0.25 0.17 0.13 0.12 0.13 0.20 0.62 0.63 0.53 0.50 0.41 0.41 0.40 0.47 0.63 0.65 0.56 0.61 0.59 0.58 0.66 0.64 0.54 0.43 0.27 0.18 0.11 0.06 0.04 0.03 0.02 0.01 0.03 0.05 0.04 0.03 0.03 0.02 0.03 0.04 0.05 0.06
0.67 0.61 0.47 0.37 0.33 0.44 0.62 0.71 0.77 0.76 0.87 0.69 0.55 0.49 0.50 0.55 0.69 0.85 0.85 0.85 0.80 0.77 0.67 0.72 0.75 0.49 0.32 0.28 0.21 0.13 0.08 0.05 0.03 0.02 0.04 0.04 0.04 0.03 0.03 0.03 0.04 0.04 0.04
1.37 1.05 0.88 0.53 0.34 0.48 0.80 0.90 1.00 1.08 1.25 1.35 1.09 0.85 0.91 1.08 0.96 0.87 0.94 1.14 1.17 1.14 1.22 1.17 1.15 1.19 0.82 0.40 0.27 0.22 0.14 0.06 0.02 0.01 0.02 0.03 0.04 0.03 0.03 0.03 0.04 0.05 0.05
1.06 0.80 0.94 0.49 0.47 0.42 0.57 0.87 1.12 1.29 1.18 1.10 1.28 1.21 1.08 1.04 1.04 1.03 1.03 0.95 0.88 0.97 1.04 1.09 1.14 1.10 1.10 0.98 0.72 0.47 0.35 0.29 0.26 0.16 0.05 0.03 0.04 0.06 0.07 0.07 0.09 0.04 0.04
0.11 0.18 0.28 0.23 0.20 0.17 0.16 0.27 0.53 0.90 1.20 1.31 1.28 1.28 1.15 1.22 1.09 0.95 0.91 0.85 0.84 0.81 0.76 0.77 0.85 0.93 0.88 0.77 0.66 0.62 0.50 0.42 0.41 0.39 0.32 0.22 0.22 0.17 0.15 0.16 0.20 0.11 0.09
0.01 0.03 0.08 0.08 0.05 0.03 0.02 0.02 0.06 0.12 0.19 0.25 0.29 0.30 0.28 0.31 0.43 0.46 0.48 0.53 0.55 0.60 0.67 0.69 0.66 0.68 0.70 0.69 0.68 0.65 0.57 0.41 0.31 0.30 0.33 0.27 0.27 0.34 0.31 0.25 0.30 0.19 0.11
0.00 0.00 0.01 0.02 0.02 0.01 0.00 0.01 0.00 0.01 0.03 0.05 0.06 0.06 0.06 0.06 0.05 0.03 0.02 0.03 0.05 0.08 0.08 0.09 0.12 0.14 0.16 0.17 0.22 0.29 0.39 0.43 0.44 0.33 0.25 0.23 0.17 0.16 0.18 0.20 0.20 0.22 0.15
0.00 0.00 0.00 0.00 0.00 0.01 0.00 0.00 0.00 0.00 0.01 0.01 0.01 0.02 0.02 0.03 0.02 0.03 0.03 0.04 0.04 0.03 0.02 0.01 0.01 0.00 0.00 0.01 0.01 0.02 0.02 0.03 0.04 0.05 0.05 0.05 0.07 0.08 0.11 0.11 0.09 0.08 0.06

GFSMA_prec_precacc12_147.txt.gz
Total_Precipitation_Accumulation
0.05 0.07 0.07 0.11 0.11 0.10 0.12 0.16 0.27 0.26 0.16 0.08 0.06 0.01 0.00 0.01 0.01 0.00 0.04 0.04 0.00 0.00 0.04 0.10 0.15 0.25 0.34 0.25 0.17 0.16 0.20 0.20 0.13 0.08 0.09 0.04 0.01 0.01 0.02 0.04 0.05 0.07 0.05
0.09 0.16 0.13 0.12 0.12 0.08 0.06 0.09 0.15 0.23 0.32 0.21 0.10 0.05 0.01 0.00 0.00 0.00 0.01 0.04 0.01 0.00 0.01 0.07 0.18 0.22 0.31 0.34 0.26 0.21 0.16 0.14 0.19 0.15 0.09 0.03 0.01 0.00 0.00 0.00 0.02 0.03 0.03
0.03 0.12 0.20 0.17 0.12 0.09 0.08 0.08 0.12 0.18 0.23 0.25 0.18 0.11 0.06 0.00 0.00 0.00 0.00 0.01 0.01 0.00 0.00 0.01 0.05 0.12 0.17 0.18 0.14 0.18 0.16 0.12 0.16 0.15 0.15 0.05 0.00 0.00 0.00 0.00 0.00 0.01 0.03
0.01 0.02 0.13 0.19 0.15 0.11 0.09 0.10 0.12 0.14 0.12 0.13 0.12 0.13 0.09 0.02 0.01 0.00 0.00 0.00 0.00 0.00 0.00 0.00 0.00 0.02 0.06 0.09 0.08 0.08 0.11 0.10 0.10 0.13 0.12 0.06 0.00 0.00 0.00 0.00 0.00 0.00 0.02
0.00 0.00 0.03 0.11 0.18 0.18 0.12 0.15 0.19 0.19 0.13 0.08 0.05 0.07 0.14 0.07 0.02 0.01 0.00 0.00 0.00 0.00 0.00 0.00 0.00 0.00 0.01 0.03 0.06 0.08 0.07 0.05 0.06 0.07 0.09 0.06 0.02 0.00 0.00 0.00 0.00 0.00 0.00
0.00 0.00 0.03 0.12 0.18 0.13 0.16 0.31 0.30 0.26 0.19 0.08 0.08 0.05 0.04 0.13 0.10 0.02 0.00 0.00 0.02 0.03 0.01 0.00 0.00 0.00 0.00 0.00 0.06 0.12 0.11 0.05 0.02 0.05 0.06 0.04 0.02 0.00 0.00 0.00 0.00 0.00 0.00
0.00 0.00 0.01 0.10 0.28 0.39 0.35 0.28 0.33 0.48 0.30 0.29 0.36 0.24 0.17 0.20 0.26 0.12 0.04 0.05 0.03 0.03 0.02 0.01 0.02 0.00 0.00 0.00 0.00 0.06 0.11 0.15 0.13 0.08 0.06 0.02 0.00 0.00 0.00 0.00 0.00 0.00 0.00
0.00 0.00 0.01 0.02 0.20 0.53 0.66 0.69 0.68 0.66 0.36 0.38 0.46 0.43 0.53 0.44 0.23 0.19 0.15 0.14 0.10 0.05 0.04 0.03 0.01 0.00 0.00 0.00 0.00 0.00 0.02 0.10 0.18 0.15 0.08 0.01 0.00 0.00 0.00 0.00 0.00 0.00 0.00
0.00 0.01 0.01 0.02 0.06 0.36 0.71 0.71 0.78 0.82 0.86 0.79 0.45 0.49 0.48 0.47 0.44 0.38 0.22 0.17 0.12 0.10 0.09 0.04 0.01 0.00 0.00 0.00 0.00 0.00 0.00 0.01 0.05 0.14 0.18 0.04 0.00 0.00 0.00 0.00 0.00 0.00 0.00
0.00 0.00 0.01 0.01 0.02 0.20 0.78 0.79 0.69 0.60 0.71 0.75 0.91 0.76 0.55 0.33 0.19 0.17 0.28 0.26 0.18 0.15 0.11 0.07 0.03 0.01 0.00 0.00 0.00 0.00 0.00 0.00 0.00 0.01 0.06 0.08 0.04 0.00 0.00 0.00 0.00 0.00 0.00
0.00 0.00 0.01 0.01 0.01 0.03 0.36 0.83 1.02 0.91 0.68 0.61 0.66 0.57 0.70 0.58 0.36 0.34 0.27 0.16 0.14 0.14 0.13 0.11 0.07 0.02 0.00 0.00 0.00 0.00 0.00 0.00 0.00 0.00 0.00 0.01 0.03 0.03 0.01 0.00 0.00 0.00 0.00
0.00 0.00 0.01 0.01 0.01 0.02 0.08 0.58 0.91 0.86 0.93 0.80 0.79 0.58 0.37 0.41 0.34 0.23 0.26 0.34 0.23 0.10 0.10 0.12 0.11 0.06 0.02 0.00 0.00 0.00 0.00 0.00 0.00 0.00 0.00 0.00 0.01 0.02 0.02 0.01 0.00 0.00 0.00
0.01 0.01 0.01 0.01 0.01 0.01 0.01 0.10 0.45 0.91 0.82 0.77 0.64 0.64 0.52 0.28 0.20 0.17 0.13 0.19 0.40 0.41 0.29 0.16 0.10 0.07 0.02 0.01 0.00 0.00 0.00 0.00 0.00 0.00 0.00 0.00 0.00 0.01 0.01 0.01 0.01 0.01 0.01
0.03 0.02 0.01 0.01 0.02 0.01 0.01 0.01 0.22 0.58 0.78 0.89 0.70 0.68 0.71 0.53 0.32 0.21 0.16 0.14 0.15 0.24 0.38 0.20 0.07 0.06 0.03 0.01 0.00 0.00 0.00 0.00 0.00 0.00 0.00 0.00 0.00 0.00 0.00 0.01 0.01 0.01 0.01
0.06 0.03 0.02 0.03 0.03 0.03 0.02 0.03 0.06 0.23 0.51 0.60 0.65 0.69 0.76 0.74 0.61 0.40 0.29 0.25 0.22 0.21 0.16 0.07 0.09 0.03 0.00 0.00 0.01 0.00 0.00 0.00 0.00 0.00 0.00 0.00 0.00 0.00 0.00 0.00 0.01 0.01 0.01
0.11 0.11 0.10 0.07 0.04 0.02 0.02 0.01 0.02 0.05 0.38 0.46 0.54 0.58 0.70 0.87 0.79 0.69 0.62 0.48 0.49 0.38 0.25 0.13 0.08 0.04 0.01 0.00 0.01 0.02 0.01 0.03 0.04 0.02 0.01 0.00 0.00 0.00 0.00 0.00 0.00 0.00 0.01
0.24 0.12 0.11 0.12 0.17 0.12 0.07 0.03 0.02 0.09 0.27 0.56 0.66 0.59 0.62 0.63 0.74 0.79 0.73 0.67 0.59 0.66 0.53 0.34 0.36 0.21 0.09 0.05 0.06 0.06 0.04 0.02 0.03 0.06 0.04 0.03 0.03 0.02 0.01 0.00 0.00 0.00 0.00
0.16 0.13 0.12 0.15 0.25 0.30 0.14 0.08 0.03 0.06 0.18 0.31 0.44 0.58 0.61 0.52 0.53 0.52 0.47 0.61 0.61 0.56 0.71 0.69 0.74 0.77 0.57 0.15 0.07 0.03 0.02 0.04 0.03 0.06 0.10 0.07 0.06 0.06 0.05 0.06 0.06 0.05 0.04
0.36 0.30 0.22 0.19 0.18 0.24 0.20 0.26 0.09 0.05 0.14 0.16 0.27 0.32 0.38 0.56 0.57 0.50 0.56 0.51 0.47 0.50 0.51 0.62 0.86 0.99 1.13 0.65 0.27 0.15 0.11 0.10 0.10 0.09 0.11 0.09 0.07 0.06 0.05 0.06 0.08 0.09 0.09
0.58 0.61 0.56 0.45 0.33 0.24 0.19 0.21 0.18 0.16 0.12 0.14 0.28 0.31 0.30 0.33 0.50 0.64 0.70 0.67 0.64 0.63 0.60 0.70 0.87 1.03 1.13 1.19 0.85 0.55 0.30 0.18 0.09 0.04 0.04 0.03 0.04 0.04 0.05 0.05 0.06 0.05 0.05
1.06 0.97 0.87 0.57 0.37 0.38 0.55 0.43 0.46 0.35 0.26 0.29 0.40 0.45 0.55 0.60 0.52 0.53 0.50 0.69 0.92 1.04 1.12 1.06 1.11 1.43 1.30 0.91 0.83 0.72 0.40 0.24 0.14 0.06 0.05 0.06 0.06 0.04 0.03 0.04 0.05 0.06 0.06
0.99 0.79 0.93 0.48 0.46 0.32 0.39 0.60 0.63 0.76 0.69 0.56 0.68 0.61 0.56 0.62 0.72 0.75 0.83 0.74 0.67 0.93 1.02 1.08 1.20 1.22 1.34 1.33 1.13 0.83 0.59 0.46 0.40 0.24 0.11 0.07 0.06 0.07 0.07 0.07 0.12 0.06 0.05
0.11 0.17 0.27 0.22 0.15 0.08 0.06 0.15 0.26 0.45 0.68 0.81 0.83 0.93 0.87 0.96 0.88 0.81 0.83 0.79 0.77 0.77 0.82 0.84 0.91 1.03 1.03 0.94 0.89 0.94 0.74 0.58 0.58 0.51 0.37 0.26 0.26 0.22 0.17 0.19 0.25 0.16 0.15
0.01 0.03 0.07 0.08 0.04 0.01 0.01 0.01 0.05 0.08 0.13 0.21 0.27 0.29 0.26 0.27 0.39 0.43 0.47 0.60 0.68 0.72 0.76 0.75 0.74 0.82 0.84 0.82 0.78 0.75 0.67 0.55 0.45 0.39 0.38 0.38 0.42 0.45 0.41 0.33 0.36 0.24 0.20
0.00 0.00 0.01 0.02 0.02 0.01 0.00 0.01 0.00 0.02 0.04 0.07 0.08 0.08 0.08 0.09 0.07 0.07 0.06 0.07 0.08 0.12 0.12 0.14 0.16 0.19 0.22 0.24 0.30 0.38 0.50 0.55 0.58 0.49 0.39 0.34 0.31 0.29 0.29 0.28 0.26 0.29 0.23
0.00 0.00 0.00 0.00 0.00 0.01 0.00 0.00 0.00 0.00 0.01 0.01 0.02 0.03 0.03 0.04 0.03 0.04 0.05 0.06 0.06 0.05 0.04 0.03 0.01 0.01 0.01 0.01 0.01 0.02 0.04 0.05 0.08 0.11 0.11 0.14 0.20 0.25 0.30 0.29 0.20 0.14 0.10

GFSMA_prec_precacc12_153.txt.gz
Total_Precipitation_Accumulation
0.00 0.00 0.00 0.01 0.01 0.05 0.10 0.15 0.26 0.30 0.24 0.18 0.13 0.11 0.15 0.23 0.16 0.03 0.18 0.23 0.07 0.03 0.05 0.10 0.11 0.08 0.10 0.06 0.04 0.04 0.07 0.12 0.17 0.18 0.12 0.05 0.01 0.02 0.04 0.08 0.10 0.06 0.02
0.00 0.00 0.00 0.00 0.01 0.01 0.01 0.07 0.13 0.22 0.33 0.28 0.22 0.15 0.04 0.13 0.18 0.21 0.36 0.42 0.22 0.08 0.01 0.07 0.13 0.10 0.11 0.13 0.09 0.06 0.06 0.08 0.20 0.17 0.11 0.04 0.01 0.00 0.00 0.01 0.03 0.02 0.01
0.00 0.00 0.00 0.00 0.00 0.00 0.01 0.02 0.08 0.15 0.21 0.25 0.22 0.19 0.10 0.02 0.04 0.20 0.45 0.27 0.25 0.06 0.02 0.02 0.08 0.09 0.07 0.06 0.06 0.07 0.04 0.06 0.13 0.15 0.17 0.10 0.02 0.00 0.00 0.00 0.00 0.01 0.02
0.00 0.00 0.00 0.00 0.00 0.00 0.01 0.02 0.04 0.09 0.11 0.12 0.12 0.17 0.15 0.06 0.02 0.03 0.30 0.24 0.13 0.08 0.05 0.04 0.02 0.07 0.04 0.02 0.03 0.05 0.03 0.06 0.09 0.11 0.11 0.10 0.05 0.01 0.00 0.00 0.00 0.00 0.01
0.00 0.00 0.00 0.00 0.00 0.00 0.00 0.02 0.04 0.08 0.10 0.06 0.04 0.07 0.19 0.16 0.07 0.03 0.13 0.28 0.12 0.09 0.08 0.06 0.02 0.02 0.07 0.03 0.01 0.03 0.04 0.04 0.05 0.05 0.09 0.07 0.04 0.03 0.01 0.01 0.00 0.00 0.00
0.00 0.00 0.00 0.00 0.00 0.00 0.00 0.00 0.03 0.08 0.12 0.06 0.03 0.02 0.04 0.13 0.15 0.11 0.06 0.12 0.29 0.20 0.18 0.18 0.12 0.03 0.02 0.04 0.01 0.01 0.03 0.02 0.01 0.04 0.05 0.05 0.04 0.02 0.01 0.00 0.00 0.00 0.00
0.00 0.00 0.00 0.00 0.00 0.00 0.00 0.00 0.01 0.04 0.09 0.18 0.24 0.18 0.13 0.17 0.23 0.15 0.11 0.17 0.31 0.25 0.26 0.27 0.26 0.12 0.04 0.03 0.03 0.01 0.02 0.04 0.03 0.04 0.05 0.03 0.01 0.00 0.00 0.00 0.00 0.00 0.00
0.00 0.00 0.00 0.00 0.01 0.01 0.01 0.01 0.01 0.03 0.08 0.19 0.36 0.40 0.52 0.43 0.22 0.19 0.21 0.25 0.40 0.39 0.37 0.37 0.33 0.16 0.06 0.03 0.01 0.01 0.00 0.04 0.07 0.03 0.01 0.00 0.00 0.00 0.00 0.00 0.00 0.00 0.00
0.00 0.00 0.01 0.01 0.01 0.02 0.02 0.01 0.01 0.03 0.04 0.16 0.27 0.46 0.49 0.46 0.45 0.39 0.24 0.21 0.31 0.52 0.68 0.47 0.42 0.19 0.12 0.05 0.03 0.01 0.00 0.01 0.03 0.05 0.04 0.00 0.00 0.00 0.00 0.00 0.00 0.00 0.00
0.00 0.00 0.00 0.01 0.01 0.01 0.02 0.02 0.01 0.02 0.04 0.14 0.49 0.64 0.53 0.36 0.23 0.19 0.29 0.36 0.46 0.39 0.32 0.22 0.20 0.17 0.17 0.12 0.03 0.01 0.01 0.02 0.00 0.01 0.03 0.03 0.01 0.00 0.00 0.00 0.00 0.00 0.00
0.00 0.00 0.01 0.01 0.01 0.02 0.01 0.01 0.01 0.02 0.03 0.05 0.08 0.33 0.61 0.57 0.40 0.39 0.31 0.20 0.22 0.31 0.39 0.48 0.35 0.25 0.22 0.32 0.22 0.09 0.02 0.03 0.02 0.01 0.00 0.00 0.00 0.00 0.00 0.00 0.00 0.00 0.00
0.00 0.01 0.00 0.01 0.01 0.02 0.02 0.01 0.01 0.02 0.03 0.03 0.06 0.13 0.24 0.38 0.37 0.29 0.31 0.39 0.28 0.15 0.19 0.27 0.42 0.37 0.26 0.21 0.20 0.13 0.06 0.03 0.01 0.01 0.00 0.00 0.00 0.00 0.00 0.00 0.00 0.00 0.00
0.01 0.01 0.01 0.01 0.01 0.01 0.01 0.01 0.02 0.03 0.05 0.09 0.08 0.10 0.23 0.21 0.20 0.22 0.20 0.23 0.46 0.50 0.41 0.34 0.31 0.28 0.17 0.19 0.19 0.19 0.13 0.11 0.04 0.01 0.01 0.00 0.00 0.00 0.00 0.00 0.00 0.00 0.00
0.02 0.01 0.02 0.01 0.02 0.01 0.01 0.01 0.02 0.03 0.05 0.10 0.11 0.11 0.14 0.20 0.22 0.24 0.27 0.23 0.22 0.28 0.44 0.42 0.35 0.38 0.35 0.29 0.23 0.24 0.23 0.23 0.19 0.08 0.01 0.00 0.00 0.00 0.00 0.00 0.00 0.00 0.00
0.03 0.02 0.02 0.03 0.03 0.03 0.02 0.03 0.05 0.06 0.06 0.11 0.17 0.18 0.21 0.19 0.34 0.30 0.30 0.36 0.39 0.29 0.17 0.09 0.24 0.35 0.37 0.45 0.30 0.29 0.27 0.21 0.20 0.16 0.09 0.02 0.00 0.00 0.00 0.00 0.00 0.00 0.00
0.04 0.04 0.05 0.04 0.04 0.03 0.02 0.03 0.05 0.07 0.11 0.12 0.13 0.14 0.17 0.23 0.28 0.44 0.52 0.46 0.57 0.55 0.45 0.18 0.11 0.11 0.14 0.22 0.28 0.40 0.29 0.17 0.16 0.15 0.16 0.15 0.03 0.00 0.00 0.00 0.00 0.00 0.00
0.05 0.04 0.04 0.05 0.14 0.12 0.08 0.06 0.06 0.08 0.10 0.12 0.13 0.13 0.13 0.13 0.19 0.39 0.58 0.53 0.54 0.71 0.66 0.45 0.45 0.33 0.26 0.25 0.26 0.37 0.40 0.35 0.26 0.27 0.20 0.19 0.13 0.02 0.00 0.00 0.00 0.00 0.00
0.06 0.05 0.04 0.09 0.24 0.32 0.18 0.18 0.16 0.13 0.19 0.17 0.19 0.22 0.25 0.21 0.18 0.12 0.25 0.59 0.53 0.47 0.74 0.74 0.84 0.91 0.78 0.60 0.54 0.52 0.48 0.48 0.50 0.54 0.44 0.29 0.17 0.12 0.04 0.04 0.04 0.05 0.05
0.11 0.13 0.09 0.13 0.18 0.25 0.25 0.44 0.35 0.17 0.39 0.30 0.35 0.40 0.37 0.30 0.26 0.28 0.24 0.28 0.37 0.41 0.42 0.61 0.91 1.15 1.38 1.09 1.06 1.25 1.22 1.02 1.09 0.82 0.62 0.50 0.36 0.28 0.22 0.16 0.16 0.20 0.20
0.11 0.22 0.30 0.26 0.24 0.15 0.12 0.20 0.23 0.20 0.20 0.26 0.21 0.24 0.22 0.21 0.21 0.17 0.28 0.37 0.33 0.35 0.38 0.47 0.72 1.01 1.15 1.32 1.11 1.20 1.64 1.55 1.23 0.96 0.77 0.78 0.65 0.39 0.29 0.17 0.12 0.10 0.09
0.06 0.15 0.24 0.28 0.24 0.22 0.32 0.23 0.16 0.13 0.10 0.09 0.08 0.08 0.13 0.15 0.20 0.14 0.08 0.15 0.25 0.30 0.40 0.47 0.56 0.93 0.95 0.75 0.84 0.98 1.24 1.38 1.31 1.15 0.92 0.74 0.65 0.58 0.37 0.23 0.11 0.09 0.10
0.00 0.01 0.02 0.05 0.09 0.11 0.13 0.17 0.18 0.25 0.26 0.23 0.31 0.22 0.18 0.15 0.16 0.22 0.22 0.15 0.15 0.22 0.21 0.34 0.52 0.62 0.76 0.76 0.63 0.56 0.76 0.99 1.06 1.03 1.00 0.91 0.85 0.73 0.63 0.40 0.30 0.11 0.09
0.01 0.01 0.03 0.03 0.04 0.03 0.02 0.03 0.07 0.13 0.21 0.31 0.37 0.52 0.47 0.49 0.37 0.29 0.32 0.31 0.25 0.23 0.32 0.33 0.34 0.43 0.55 0.56 0.53 0.57 0.50 0.64 0.92 1.09 1.09 1.00 0.91 0.91 0.85 0.63 0.39 0.18 0.14
0.00 0.00 0.01 0.01 0.00 0.00 0.00 0.01 0.04 0.06 0.08 0.12 0.15 0.17 0.13 0.13 0.18 0.16 0.14 0.20 0.29 0.35 0.34 0.37 0.49 0.62 0.60 0.57 0.59 0.61 0.56 0.52 0.46 0.53 0.83 1.18 1.28 1.22 1.06 0.87 0.67 0.38 0.32
0.00 0.00 0.00 0.00 0.00 0.00 0.00 0.00 0.00 0.01 0.03 0.05 0.05 0.05 0.05 0.05 0.04 0.05 0.05 0.04 0.04 0.08 0.12 0.15 0.18 0.25 0.35 0.39 0.39 0.44 0.58 0.63 0.66 0.59 0.55 0.65 0.82 1.08 1.18 0.98 0.71 0.60 0.48
0.00 0.01 0.00 0.00 0.00 0.00 0.00 0.00 0.00 0.00 0.00 0.00 0.02 0.03 0.02 0.02 0.02 0.02 0.03 0.04 0.05 0.05 0.04 0.04 0.04 0.03 0.02 0.03 0.06 0.08 0.13 0.19 0.31 0.40 0.36 0.47 0.53 0.63 0.75 0.83 0.81 0.62 0.50

GFSMA_prec_precacc12_156.txt.gz
Total_Precipitation_Accumulation
0.00 0.00 0.00 0.00 0.00 0.00 0.02 0.09 0.20 0.23 0.19 0.15 0.11 0.10 0.15 0.24 0.20 0.08 0.22 0.34 0.30 0.14 0.17 0.14 0.12 0.08 0.04 0.01 0.01 0.02 0.03 0.03 0.08 0.16 0.14 0.05 0.01 0.02 0.06 0.11 0.15 0.05 0.01
0.00 0.00 0.00 0.00 0.00 0.00 0.00 0.01 0.08 0.18 0.26 0.23 0.20 0.14 0.03 0.14 0.18 0.26 0.45 0.47 0.37 0.22 0.12 0.13 0.16 0.13 0.05 0.03 0.01 0.00 0.02 0.04 0.10 0.13 0.11 0.04 0.01 0.00 0.00 0.02 0.04 0.02 0.01
0.00 0.00 0.00 0.00 0.00 0.00 0.00 0.00 0.01 0.06 0.13 0.19 0.20 0.18 0.09 0.02 0.05 0.21 0.53 0.33 0.28 0.17 0.10 0.11 0.13 0.14 0.10 0.04 0.01 0.02 0.02 0.03 0.08 0.11 0.15 0.10 0.02 0.00 0.00 0.00 0.00 0.00 0.00
0.00 0.00 0.00 0.00 0.00 0.00 0.00 0.00 0.00 0.01 0.04 0.09 0.11 0.16 0.12 0.05 0.02 0.03 0.31 0.29 0.14 0.13 0.13 0.09 0.08 0.11 0.10 0.05 0.02 0.02 0.01 0.02 0.04 0.04 0.07 0.09 0.05 0.01 0.00 0.00 0.00 0.00 0.01
0.00 0.00 0.00 0.00 0.00 0.00 0.00 0.00 0.00 0.01 0.01 0.02 0.04 0.06 0.15 0.15 0.06 0.03 0.13 0.28 0.13 0.09 0.08 0.12 0.11 0.14 0.13 0.07 0.02 0.02 0.03 0.02 0.01 0.03 0.07 0.06 0.04 0.05 0.03 0.02 0.00 0.00 0.01
0.00 0.00 0.00 0.00 0.00 0.00 0.00 0.00 0.00 0.00 0.01 0.01 0.02 0.02 0.03 0.09 0.12 0.10 0.07 0.12 0.28 0.19 0.18 0.22 0.30 0.27 0.22 0.11 0.05 0.02 0.02 0.01 0.00 0.02 0.03 0.04 0.03 0.03 0.08 0.05 0.02 0.00 0.00
0.00 0.00 0.00 0.00 0.00 0.00 0.00 0.00 0.00 0.00 0.01 0.02 0.04 0.05 0.07 0.12 0.18 0.12 0.10 0.16 0.29 0.23 0.27 0.33 0.40 0.34 0.27 0.25 0.16 0.03 0.02 0.02 0.01 0.02 0.03 0.03 0.01 0.00 0.03 0.03 0.02 0.00 0.00
0.00 0.00 0.00 0.00 0.01 0.01 0.01 0.01 0.01 0.01 0.01 0.01 0.04 0.07 0.13 0.29 0.18 0.17 0.18 0.21 0.37 0.36 0.36 0.38 0.41 0.32 0.21 0.20 0.14 0.12 0.06 0.02 0.03 0.01 0.00 0.00 0.00 0.00 0.00 0.00 0.02 0.02 0.01
0.00 0.00 0.00 0.01 0.01 0.01 0.01 0.01 0.01 0.01 0.02 0.01 0.04 0.08 0.07 0.27 0.42 0.37 0.23 0.18 0.28 0.48 0.66 0.50 0.45 0.24 0.22 0.19 0.15 0.11 0.09 0.05 0.03 0.01 0.00 0.00 0.00 0.00 0.00 0.00 0.00 0.00 0.00
0.00 0.00 0.00 0.00 0.01 0.01 0.01 0.01 0.01 0.01 0.02 0.02 0.04 0.07 0.08 0.08 0.13 0.16 0.27 0.35 0.44 0.37 0.31 0.24 0.24 0.19 0.27 0.36 0.29 0.16 0.08 0.16 0.12 0.04 0.00 0.00 0.00 0.00 0.00 0.00 0.00 0.00 0.00
0.00 0.00 0.00 0.01 0.01 0.01 0.01 0.01 0.01 0.01 0.02 0.03 0.03 0.03 0.07 0.06 0.08 0.29 0.28 0.18 0.19 0.29 0.38 0.46 0.34 0.27 0.26 0.43 0.49 0.43 0.16 0.18 0.17 0.12 0.04 0.01 0.00 0.00 0.00 0.00 0.00 0.00 0.00
0.00 0.00 0.00 0.01 0.01 0.01 0.01 0.01 0.02 0.02 0.02 0.03 0.05 0.05 0.06 0.06 0.05 0.11 0.26 0.37 0.27 0.14 0.20 0.26 0.40 0.37 0.29 0.24 0.26 0.27 0.24 0.16 0.16 0.15 0.10 0.06 0.03 0.03 0.01 0.00 0.00 0.00 0.00
0.01 0.01 0.01 0.01 0.01 0.01 0.01 0.01 0.02 0.03 0.04 0.07 0.07 0.06 0.06 0.06 0.07 0.08 0.12 0.16 0.40 0.48 0.38 0.32 0.31 0.28 0.18 0.23 0.24 0.24 0.24 0.29 0.29 0.16 0.09 0.09 0.07 0.04 0.03 0.01 0.00 0.00 0.00
0.02 0.01 0.01 0.01 0.01 0.01 0.01 0.01 0.02 0.03 0.04 0.07 0.08 0.10 0.10 0.08 0.09 0.11 0.16 0.14 0.14 0.20 0.40 0.41 0.36 0.42 0.39 0.32 0.27 0.32 0.31 0.31 0.27 0.20 0.12 0.08 0.07 0.04 0.04 0.02 0.00 0.00 0.00
0.02 0.01 0.01 0.02 0.01 0.01 0.01 0.02 0.04 0.05 0.05 0.09 0.15 0.15 0.20 0.14 0.13 0.13 0.15 0.23 0.30 0.17 0.12 0.09 0.24 0.37 0.44 0.51 0.34 0.35 0.37 0.34 0.33 0.29 0.26 0.20 0.14 0.12 0.10 0.07 0.02 0.00 0.00
0.02 0.02 0.02 0.02 0.02 0.02 0.01 0.02 0.05 0.07 0.09 0.10 0.10 0.12 0.15 0.21 0.19 0.18 0.20 0.27 0.42 0.43 0.37 0.16 0.13 0.14 0.18 0.30 0.39 0.54 0.45 0.32 0.34 0.43 0.49 0.47 0.29 0.20 0.16 0.12 0.08 0.03 0.00
0.02 0.02 0.03 0.03 0.06 0.10 0.08 0.06 0.06 0.06 0.08 0.11 0.12 0.12 0.11 0.12 0.18 0.30 0.29 0.21 0.28 0.49 0.51 0.42 0.49 0.40 0.33 0.27 0.27 0.39 0.45 0.48 0.51 0.54 0.58 0.66 0.62 0.40 0.21 0.14 0.10 0.06 0.03
0.02 0.03 0.03 0.04 0.09 0.25 0.17 0.17 0.17 0.13 0.18 0.17 0.20 0.22 0.27 0.25 0.22 0.12 0.17 0.36 0.28 0.22 0.42 0.52 0.79 0.97 0.81 0.64 0.56 0.52 0.48 0.48 0.52 0.58 0.48 0.43 0.42 0.38 0.32 0.20 0.15 0.13 0.12
0.05 0.06 0.06 0.09 0.13 0.20 0.23 0.41 0.34 0.17 0.38 0.30 0.37 0.42 0.43 0.41 0.40 0.51 0.35 0.16 0.21 0.23 0.22 0.33 0.65 1.01 1.30 1.02 1.03 1.24 1.22 1.03 1.09 0.83 0.62 0.54 0.53 0.58 0.54 0.42 0.35 0.34 0.32
0.02 0.05 0.10 0.09 0.11 0.08 0.10 0.17 0.22 0.20 0.19 0.25 0.19 0.23 0.24 0.28 0.37 0.40 0.48 0.49 0.27 0.16 0.16 0.16 0.31 0.73 0.98 1.18 1.03 1.15 1.61 1.53 1.24 0.99 0.79 0.81 0.82 0.63 0.57 0.48 0.41 0.30 0.26
0.00 0.01 0.02 0.05 0.07 0.07 0.14 0.12 0.10 0.09 0.08 0.06 0.03 0.03 0.06 0.07 0.11 0.20 0.23 0.25 0.29 0.21 0.13 0.13 0.17 0.41 0.64 0.64 0.76 0.91 1.19 1.35 1.30 1.15 0.92 0.74 0.70 0.82 0.76 0.57 0.49 0.45 0.35
0.00 0.00 0.00 0.00 0.02 0.02 0.03 0.04 0.03 0.05 0.08 0.09 0.08 0.06 0.03 0.03 0.04 0.09 0.15 0.16 0.20 0.24 0.17 0.12 0.18 0.21 0.30 0.41 0.48 0.49 0.69 0.93 1.02 1.00 1.00 0.92 0.86 0.76 0.78 0.80 0.87 0.70 0.50
0.00 0.00 0.00 0.00 0.00 0.01 0.01 0.01 0.00 0.00 0.01 0.03 0.05 0.07 0.12 0.13 0.09 0.11 0.18 0.20 0.17 0.16 0.27 0.27 0.20 0.25 0.29 0.31 0.32 0.41 0.41 0.59 0.89 1.06 1.04 0.95 0.82 0.84 0.80 0.71 0.72 0.76 0.75
0.00 0.00 0.00 0.00 0.00 0.00 0.00 0.00 0.00 0.00 0.01 0.02 0.03 0.05 0.05 0.06 0.09 0.10 0.10 0.15 0.23 0.27 0.26 0.27 0.37 0.47 0.44 0.37 0.33 0.33 0.30 0.35 0.40 0.54 0.82 1.14 1.16 1.03 0.87 0.82 0.83 0.76 0.75
0.00 0.00 0.00 0.00 0.00 0.00 0.00 0.00 0.00 0.00 0.01 0.02 0.02 0.02 0.02 0.03 0.04 0.05 0.05 0.04 0.04 0.07 0.11 0.14 0.16 0.20 0.29 0.31 0.28 0.28 0.38 0.40 0.47 0.49 0.50 0.62 0.78 1.06 1.12 0.99 0.85 0.84 0.92
0.01 0.01 0.00 0.00 0.00 0.00 0.00 0.00 0.00 0.00 0.00 0.00 0.01 0.02 0.01 0.01 0.01 0.02 0.03 0.03 0.05 0.04 0.03 0.04 0.04 0.03 0.02 0.03 0.05 0.08 0.13 0.20 0.35 0.45 0.45 0.53 0.56 0.66 0.78 0.91 0.97 0.86 0.86

GFSMA_prec_precacc12_159.txt.gz
Total_Precipitation_Accumulation
0.00 0.00 0.00 0.00 0.00 0.00 0.00 0.00 0.00 0.04 0.08 0.11 0.07 0.09 0.15 0.24 0.20 0.09 0.18 0.33 0.38 0.17 0.22 0.23 0.17 0.10 0.06 0.04 0.03 0.02 0.02 0.03 0.09 0.16 0.11 0.02 0.00 0.02 0.12 0.22 0.26 0.11 0.02
0.00 0.00 0.00 0.00 0.00 0.00 0.00 0.00 0.00 0.00 0.02 0.07 0.12 0.10 0.03 0.14 0.18 0.26 0.44 0.47 0.47 0.31 0.13 0.20 0.20 0.17 0.07 0.02 0.00 0.00 0.01 0.03 0.07 0.08 0.07 0.05 0.00 0.00 0.01 0.05 0.11 0.06 0.01
0.00 0.00 0.00 0.00 0.00 0.00 0.00 0.00 0.00 0.00 0.00 0.01 0.05 0.08 0.04 0.02 0.05 0.21 0.53 0.32 0.31 0.29 0.16 0.13 0.15 0.14 0.13 0.07 0.01 0.00 0.01 0.02 0.06 0.07 0.06 0.07 0.03 0.00 0.00 0.00 0.00 0.01 0.00
0.00 0.00 0.00 0.00 0.00 0.00 0.00 0.00 0.00 0.00 0.00 0.00 0.00 0.04 0.06 0.04 0.02 0.03 0.31 0.29 0.14 0.13 0.16 0.13 0.15 0.25 0.15 0.08 0.05 0.01 0.00 0.01 0.03 0.01 0.02 0.05 0.06 0.01 0.03 0.00 0.00 0.00 0.00
0.00 0.00 0.00 0.00 0.00 0.00 0.00 0.00 0.00 0.00 0.00 0.00 0.01 0.00 0.04 0.10 0.06 0.03 0.13 0.28 0.13 0.10 0.09 0.16 0.16 0.19 0.23 0.18 0.12 0.04 0.01 0.01 0.00 0.00 0.01 0.01 0.02 0.06 0.06 0.02 0.01 0.00 0.01
0.00 0.00 0.00 0.00 0.00 0.00 0.00 0.00 0.00 0.00 0.00 0.00 0.00 0.01 0.01 0.02 0.07 0.10 0.07 0.12 0.28 0.20 0.19 0.23 0.37 0.33 0.29 0.28 0.25 0.14 0.05 0.01 0.00 0.00 0.00 0.01 0.01 0.04 0.13 0.06 0.02 0.03 0.03
0.00 0.00 0.00 0.00 0.00 0.00 0.00 0.00 0.00 0.00 0.00 0.00 0.00 0.01 0.01 0.01 0.03 0.06 0.08 0.14 0.29 0.23 0.27 0.33 0.39 0.43 0.34 0.37 0.35 0.24 0.15 0.05 0.00 0.00 0.02 0.02 0.01 0.00 0.06 0.09 0.06 0.04 0.02
0.00 0.00 0.00 0.00 0.00 0.01 0.01 0.01 0.01 0.01 0.01 0.00 0.01 0.02 0.01 0.01 0.01 0.03 0.08 0.12 0.32 0.35 0.34 0.38 0.41 0.34 0.26 0.30 0.35 0.41 0.31 0.18 0.06 0.01 0.00 0.01 0.00 0.01 0.01 0.04 0.06 0.07 0.07
0.00 0.00 0.00 0.00 0.01 0.01 0.01 0.01 0.01 0.01 0.01 0.00 0.01 0.04 0.04 0.02 0.01 0.01 0.02 0.05 0.19 0.42 0.61 0.49 0.47 0.27 0.25 0.29 0.31 0.31 0.26 0.18 0.12 0.04 0.00 0.00 0.00 0.00 0.00 0.03 0.03 0.05 0.05
0.00 0.00 0.00 0.00 0.01 0.01 0.01 0.01 0.01 0.01 0.02 0.01 0.01 0.01 0.04 0.05 0.06 0.03 0.01 0.10 0.29 0.26 0.23 0.19 0.23 0.20 0.29 0.38 0.36 0.34 0.32 0.38 0.26 0.15 0.08 0.04 0.00 0.00 0.00 0.01 0.00 0.02 0.03
0.00 0.00 0.00 0.00 0.00 0.01 0.01 0.01 0.01 0.01 0.02 0.02 0.01 0.01 0.02 0.03 0.06 0.06 0.04 0.03 0.08 0.18 0.29 0.38 0.30 0.26 0.29 0.45 0.50 0.50 0.43 0.54 0.60 0.33 0.18 0.13 0.04 0.01 0.03 0.00 0.00 0.00 0.01
0.00 0.00 0.00 0.01 0.01 0.01 0.01 0.01 0.01 0.02 0.02 0.03 0.03 0.01 0.02 0.05 0.05 0.07 0.07 0.07 0.05 0.04 0.11 0.17 0.33 0.32 0.28 0.28 0.27 0.28 0.31 0.33 0.41 0.54 0.35 0.22 0.15 0.13 0.13 0.08 0.01 0.00 0.00
0.00 0.01 0.00 0.01 0.01 0.01 0.01 0.00 0.01 0.02 0.03 0.06 0.05 0.03 0.01 0.04 0.08 0.10 0.11 0.06 0.07 0.09 0.12 0.19 0.23 0.22 0.16 0.24 0.26 0.24 0.25 0.31 0.33 0.47 0.63 0.60 0.34 0.20 0.17 0.13 0.07 0.02 0.01
0.01 0.00 0.01 0.01 0.01 0.00 0.00 0.00 0.01 0.02 0.02 0.04 0.05 0.05 0.04 0.04 0.09 0.13 0.17 0.14 0.09 0.05 0.06 0.22 0.30 0.36 0.35 0.32 0.30 0.35 0.34 0.34 0.32 0.31 0.36 0.50 0.38 0.34 0.19 0.14 0.08 0.05 0.03
0.01 0.00 0.01 0.01 0.01 0.01 0.00 0.01 0.02 0.03 0.02 0.04 0.07 0.07 0.09 0.06 0.09 0.11 0.14 0.19 0.24 0.11 0.02 0.02 0.15 0.34 0.43 0.53 0.37 0.40 0.41 0.39 0.42 0.37 0.33 0.28 0.31 0.33 0.27 0.25 0.19 0.10 0.04
0.01 0.00 0.01 0.01 0.01 0.01 0.01 0.01 0.03 0.05 0.06 0.06 0.05 0.04 0.06 0.05 0.07 0.10 0.14 0.16 0.21 0.27 0.23 0.06 0.05 0.10 0.17 0.31 0.40 0.56 0.49 0.38 0.43 0.52 0.59 0.57 0.38 0.30 0.27 0.25 0.26 0.19 0.11
0.01 0.00 0.01 0.02 0.02 0.01 0.02 0.04 0.04 0.05 0.04 0.05 0.07 0.08 0.06 0.07 0.11 0.23 0.21 0.12 0.15 0.22 0.23 0.16 0.17 0.21 0.27 0.23 0.22 0.33 0.43 0.49 0.53 0.59 0.64 0.78 0.74 0.57 0.45 0.42 0.31 0.21 0.16
0.00 0.01 0.00 0.01 0.02 0.03 0.05 0.11 0.15 0.11 0.16 0.13 0.16 0.20 0.26 0.23 0.21 0.11 0.16 0.34 0.22 0.14 0.19 0.14 0.20 0.28 0.31 0.54 0.53 0.52 0.47 0.45 0.49 0.56 0.47 0.59 0.69 0.59 0.61 0.70 0.77 0.55 0.35
0.00 0.00 0.01 0.02 0.05 0.05 0.08 0.21 0.28 0.15 0.30 0.28 0.34 0.41 0.43 0.41 0.40 0.52 0.38 0.20 0.23 0.25 0.21 0.17 0.17 0.24 0.39 0.56 0.94 1.23 1.17 0.96 1.00 0.77 0.54 0.50 0.56 0.67 0.65 0.61 0.62 0.57 0.46
0.00 0.00 0.00 0.01 0.04 0.03 0.05 0.09 0.15 0.16 0.18 0.25 0.19 0.23 0.25 0.28 0.38 0.41 0.52 0.65 0.44 0.26 0.26 0.23 0.18 0.18 0.19 0.33 0.47 0.90 1.54 1.45 1.19 0.98 0.80 0.81 0.82 0.64 0.58 0.52 0.50 0.42 0.37
0.00 0.00 0.00 0.00 0.01 0.01 0.01 0.04 0.05 0.04 0.06 0.06 0.03 0.03 0.06 0.07 0.11 0.19 0.25 0.34 0.44 0.42 0.35 0.30 0.24 0.18 0.18 0.15 0.27 0.50 1.03 1.30 1.25 1.12 0.89 0.71 0.68 0.82 0.77 0.57 0.48 0.46 0.43
0.00 0.00 0.00 0.00 0.00 0.00 0.00 0.00 0.00 0.01 0.01 0.02 0.02 0.02 0.01 0.01 0.02 0.04 0.06 0.14 0.23 0.35 0.29 0.26 0.29 0.25 0.15 0.11 0.14 0.19 0.47 0.76 0.86 0.90 0.94 0.90 0.84 0.74 0.78 0.80 0.84 0.69 0.55
0.00 0.00 0.00 0.00 0.00 0.00 0.00 0.00 0.00 0.00 0.00 0.01 0.00 0.00 0.00 0.01 0.01 0.02 0.03 0.02 0.04 0.11 0.26 0.30 0.23 0.22 0.26 0.24 0.15 0.13 0.24 0.48 0.72 0.92 0.95 0.89 0.78 0.79 0.78 0.69 0.67 0.71 0.75
0.00 0.00 0.00 0.00 0.00 0.00 0.00 0.00 0.00 0.00 0.00 0.00 0.00 0.00 0.00 0.00 0.00 0.00 0.00 0.01 0.04 0.10 0.15 0.25 0.37 0.42 0.39 0.31 0.30 0.30 0.22 0.23 0.27 0.43 0.70 0.98 1.01 0.94 0.77 0.74 0.76 0.71 0.68
0.00 0.00 0.00 0.00 0.00 0.00 0.00 0.00 0.00 0.00 0.00 0.00 0.00 0.00 0.00 0.00 0.01 0.01 0.01 0.00 0.01 0.03 0.07 0.10 0.13 0.16 0.24 0.26 0.23 0.20 0.29 0.30 0.34 0.36 0.36 0.47 0.65 0.94 1.03 0.92 0.79 0.78 0.84
0.00 0.00 0.00 0.00 0.00 0.00 0.00 0.00 0.00 0.00 0.00 0.00 0.00 0.00 0.00 0.00 0.00 0.00 0.01 0.01 0.02 0.03 0.02 0.02 0.03 0.02 0.02 0.03 0.05 0.08 0.13 0.20 0.34 0.42 0.43 0.47 0.47 0.53 0.61 0.75 0.88 0.83 0.85

GFSMA_prec_precacc12_162.txt.gz
Total_Precipitation_Accumulation
0.00 0.00 0.00 0.00 0.00 0.00 0.00 0.00 0.00 0.00 0.00 0.00 0.01 0.08 0.11 0.13 0.12 0.06 0.17 0.32 0.36 0.15 0.19 0.22 0.21 0.16 0.10 0.07 0.04 0.02 0.00 0.01 0.03 0.14 0.15 0.02 0.00 0.03 0.14 0.25 0.36 0.29 0.21
0.00 0.00 0.00 0.00 0.00 0.00 0.00 0.00 0.00 0.00 0.00 0.00 0.00 0.01 0.01 0.08 0.09 0.15 0.38 0.47 0.45 0.27 0.13 0.18 0.22 0.21 0.14 0.11 0.04 0.01 0.01 0.01 0.02 0.07 0.09 0.09 0.02 0.00 0.02 0.08 0.21 0.20 0.13
0.00 0.00 0.00 0.00 0.00 0.00 0.00 0.00 0.00 0.00 0.00 0.00 0.00 0.00 0.00 0.01 0.02 0.12 0.41 0.32 0.30 0.29 0.16 0.12 0.14 0.16 0.19 0.21 0.13 0.02 0.03 0.01 0.02 0.06 0.05 0.06 0.06 0.02 0.00 0.00 0.04 0.09 0.09
0.00 0.00 0.00 0.00 0.00 0.00 0.00 0.00 0.00 0.00 0.00 0.00 0.00 0.00 0.00 0.00 0.00 0.02 0.21 0.25 0.13 0.13 0.16 0.13 0.15 0.25 0.17 0.13 0.15 0.05 0.06 0.04 0.01 0.01 0.02 0.03 0.06 0.07 0.06 0.01 0.00 0.01 0.01
0.00 0.00 0.00 0.00 0.00 0.00 0.00 0.00 0.00 0.00 0.00 0.00 0.00 0.00 0.00 0.01 0.00 0.01 0.09 0.18 0.11 0.07 0.08 0.16 0.16 0.19 0.23 0.21 0.18 0.11 0.11 0.14 0.04 0.00 0.00 0.00 0.03 0.09 0.16 0.09 0.02 0.00 0.01
0.00 0.00 0.00 0.00 0.00 0.00 0.00 0.00 0.00 0.00 0.00 0.00 0.00 0.00 0.00 0.00 0.01 0.00 0.01 0.05 0.19 0.17 0.16 0.21 0.36 0.33 0.30 0.28 0.29 0.28 0.15 0.12 0.08 0.03 0.00 0.00 0.00 0.04 0.22 0.22 0.11 0.06 0.03
0.00 0.00 0.00 0.00 0.00 0.00 0.00 0.00 0.00 0.00 0.00 0.00 0.00 0.00 0.00 0.00 0.00 0.01 0.01 0.02 0.10 0.16 0.24 0.26 0.35 0.43 0.34 0.38 0.38 0.38 0.32 0.15 0.10 0.07 0.04 0.00 0.00 0.00 0.09 0.20 0.22 0.17 0.08
0.00 0.00 0.00 0.00 0.00 0.00 0.00 0.00 0.00 0.01 0.01 0.00 0.01 0.00 0.00 0.00 0.00 0.00 0.01 0.01 0.03 0.11 0.23 0.29 0.31 0.29 0.26 0.31 0.39 0.51 0.50 0.39 0.24 0.15 0.11 0.02 0.00 0.01 0.01 0.06 0.15 0.21 0.18
0.00 0.00 0.00 0.00 0.00 0.00 0.00 0.00 0.01 0.01 0.02 0.00 0.01 0.04 0.03 0.01 0.00 0.00 0.00 0.00 0.01 0.02 0.07 0.19 0.28 0.19 0.23 0.28 0.32 0.37 0.38 0.36 0.35 0.21 0.17 0.08 0.00 0.00 0.00 0.03 0.06 0.12 0.19
0.00 0.00 0.00 0.00 0.00 0.00 0.00 0.00 0.01 0.01 0.02 0.01 0.01 0.01 0.03 0.04 0.04 0.02 0.01 0.02 0.03 0.03 0.04 0.07 0.15 0.14 0.23 0.33 0.37 0.36 0.37 0.51 0.41 0.30 0.26 0.20 0.05 0.01 0.00 0.01 0.01 0.06 0.14
0.00 0.00 0.00 0.00 0.00 0.01 0.00 0.00 0.01 0.01 0.02 0.02 0.02 0.01 0.01 0.01 0.02 0.03 0.01 0.02 0.04 0.04 0.05 0.06 0.12 0.16 0.25 0.37 0.47 0.51 0.45 0.65 0.88 0.71 0.44 0.36 0.27 0.15 0.07 0.01 0.01 0.01 0.05
0.00 0.00 0.00 0.00 0.00 0.00 0.00 0.00 0.01 0.01 0.02 0.03 0.03 0.02 0.02 0.04 0.03 0.03 0.04 0.04 0.03 0.03 0.08 0.06 0.18 0.22 0.24 0.25 0.23 0.28 0.32 0.36 0.49 0.89 0.89 0.57 0.56 0.39 0.31 0.16 0.05 0.02 0.05
0.00 0.00 0.00 0.00 0.01 0.01 0.00 0.00 0.01 0.02 0.03 0.05 0.05 0.03 0.01 0.03 0.06 0.05 0.06 0.04 0.04 0.04 0.06 0.06 0.05 0.07 0.10 0.19 0.23 0.22 0.25 0.32 0.35 0.50 0.72 0.82 0.70 0.71 0.62 0.30 0.18 0.11 0.09
0.00 0.00 0.00 0.00 0.00 0.00 0.00 0.00 0.01 0.02 0.02 0.03 0.04 0.05 0.04 0.03 0.05 0.06 0.07 0.10 0.06 0.02 0.04 0.05 0.08 0.10 0.12 0.18 0.23 0.31 0.32 0.34 0.32 0.32 0.39 0.55 0.76 0.85 0.94 0.65 0.28 0.20 0.18
0.00 0.00 0.00 0.00 0.00 0.00 0.00 0.00 0.01 0.01 0.01 0.03 0.05 0.04 0.06 0.05 0.05 0.05 0.06 0.11 0.22 0.11 0.02 0.00 0.02 0.07 0.12 0.16 0.18 0.30 0.36 0.39 0.42 0.37 0.36 0.32 0.34 0.42 0.60 0.82 0.76 0.40 0.14
0.00 0.00 0.00 0.00 0.01 0.00 0.00 0.00 0.01 0.01 0.03 0.03 0.03 0.02 0.03 0.02 0.01 0.02 0.03 0.06 0.14 0.25 0.23 0.06 0.03 0.04 0.06 0.13 0.20 0.38 0.41 0.39 0.42 0.53 0.61 0.62 0.43 0.33 0.29 0.30 0.40 0.41 0.24
0.00 0.00 0.00 0.01 0.01 0.01 0.00 0.00 0.00 0.02 0.03 0.02 0.02 0.05 0.04 0.05 0.07 0.05 0.04 0.03 0.04 0.11 0.14 0.13 0.11 0.10 0.12 0.05 0.06 0.17 0.29 0.42 0.50 0.56 0.65 0.82 0.83 0.67 0.55 0.48 0.36 0.32 0.32
0.00 0.00 0.00 0.00 0.00 0.00 0.00 0.01 0.03 0.04 0.05 0.07 0.05 0.11 0.16 0.17 0.13 0.07 0.07 0.13 0.16 0.08 0.08 0.07 0.10 0.15 0.14 0.12 0.12 0.19 0.28 0.26 0.39 0.47 0.43 0.60 0.74 0.66 0.69 0.81 0.84 0.88 0.73
0.00 0.00 0.00 0.00 0.00 0.00 0.00 0.01 0.04 0.06 0.08 0.15 0.14 0.21 0.31 0.32 0.36 0.44 0.37 0.19 0.22 0.24 0.17 0.10 0.07 0.07 0.17 0.20 0.28 0.43 0.40 0.38 0.67 0.63 0.39 0.38 0.51 0.69 0.66 0.62 0.60 0.63 0.63
0.00 0.00 0.00 0.00 0.00 0.00 0.00 0.00 0.01 0.04 0.06 0.12 0.11 0.17 0.20 0.25 0.37 0.41 0.53 0.66 0.45 0.26 0.26 0.23 0.13 0.11 0.09 0.20 0.24 0.37 0.62 0.52 0.57 0.72 0.68 0.69 0.75 0.59 0.59 0.52 0.48 0.43 0.40
0.00 0.00 0.00 0.00 0.00 0.00 0.00 0.00 0.00 0.00 0.02 0.04 0.02 0.02 0.04 0.06 0.10 0.19 0.25 0.35 0.45 0.43 0.36 0.33 0.30 0.22 0.19 0.12 0.31 0.37 0.33 0.46 0.58 0.62 0.68 0.62 0.64 0.81 0.74 0.55 0.46 0.44 0.41
0.00 0.00 0.00 0.00 0.00 0.00 0.00 0.00 0.00 0.00 0.00 0.02 0.01 0.00 0.00 0.00 0.01 0.03 0.06 0.14 0.24 0.35 0.31 0.30 0.43 0.43 0.33 0.28 0.21 0.31 0.34 0.31 0.33 0.47 0.71 0.78 0.77 0.73 0.78 0.80 0.82 0.66 0.52
0.00 0.00 0.00 0.00 0.00 0.00 0.00 0.00 0.00 0.00 0.00 0.00 0.00 0.00 0.00 0.00 0.00 0.00 0.01 0.01 0.03 0.09 0.23 0.26 0.23 0.33 0.42 0.41 0.32 0.23 0.29 0.36 0.35 0.33 0.37 0.62 0.75 0.79 0.79 0.68 0.64 0.69 0.73
0.00 0.00 0.00 0.00 0.00 0.00 0.00 0.00 0.00 0.00 0.00 0.00 0.00 0.00 0.00 0.00 0.00 0.00 0.00 0.00 0.00 0.02 0.05 0.12 0.20 0.24 0.32 0.35 0.34 0.36 0.26 0.25 0.26 0.31 0.34 0.49 0.57 0.69 0.64 0.67 0.66 0.66 0.62
0.00 0.00 0.00 0.00 0.00 0.00 0.00 0.00 0.00 0.00 0.00 0.00 0.00 0.00 0.00 0.00 0.00 0.00 0.00 0.00 0.00 0.00 0.00 0.01 0.04 0.06 0.08 0.14 0.23 0.24 0.27 0.29 0.30 0.33 0.32 0.41 0.54 0.73 0.80 0.77 0.67 0.68 0.77
0.00 0.00 0.00 0.00 0.00 0.00 0.00 0.00 0.00 0.00 0.00 0.00 0.00 0.00 0.00 0.00 0.00 0.00 0.00 0.00 0.00 0.00 0.00 0.00 0.00 0.01 0.01 0.02 0.05 0.10 0.16 0.23 0.33 0.37 0.39 0.42 0.42 0.48 0.53 0.64 0.74 0.67 0.75